GFSGL_925_temp_000.txt.gz
Temp
9 8 8 7 7 7 6 6 6 5 5 4 4 3 3 4 3 3 3 3 2 1 0 -1 -1 -1 -1 -2 -2 -3 -3 -4 -4 -3 -3 -2 -0 1 1 1 1 1 2
8 8 7 7 6 5 5 4 4 4 5 5 4 3 3 3 3 3 3 2 2 0 -0 -1 -1 -2 -2 -3 -4 -4 -4 -4 -5 -5 -4 -3 -2 1 1 -0 0 0 1
8 7 6 6 5 5 4 3 4 3 3 3 3 3 3 3 3 3 3 2 0 -0 -1 -1 -2 -3 -4 -4 -4 -5 -5 -5 -5 -5 -4 -4 -3 -1 -0 0 -0 -0 -0
7 6 6 5 4 4 3 3 2 2 2 2 2 3 3 3 2 2 1 0 -0 -1 -2 -3 -3 -4 -5 -5 -5 -5 -5 -5 -6 -5 -5 -5 -4 -2 -1 -1 -0 -0 0
6 6 5 5 4 4 3 2 2 1 2 2 2 3 3 2 2 1 -0 -1 -2 -2 -3 -4 -5 -5 -5 -5 -5 -6 -6 -6 -6 -5 -5 -4 -4 -4 -3 -2 -2 -2 -1
6 5 5 4 4 3 3 2 1 2 2 2 2 2 2 1 -0 -1 -2 -2 -3 -4 -5 -6 -7 -7 -7 -6 -7 -7 -7 -7 -6 -6 -6 -5 -4 -5 -5 -4 -4 -3 -3
5 5 5 4 3 3 2 2 2 2 2 1 1 0 0 -0 -1 -2 -3 -4 -5 -6 -7 -7 -8 -7 -8 -8 -8 -7 -7 -7 -7 -6 -6 -6 -5 -5 -5 -6 -5 -4 -4
5 5 4 3 3 2 1 2 2 2 1 1 0 -1 -1 -1 -3 -3 -4 -6 -7 -8 -8 -8 -9 -9 -8 -8 -8 -7 -7 -7 -7 -7 -6 -6 -6 -6 -6 -5 -5 -5 -5
5 5 4 3 3 2 1 2 2 1 1 0 -0 -1 -2 -3 -4 -5 -6 -7 -8 -8 -8 -9 -9 -9 -8 -7 -7 -8 -7 -7 -7 -7 -6 -7 -7 -7 -6 -5 -6 -6 -5
5 4 4 3 3 2 1 2 2 1 1 -0 -1 -2 -3 -4 -5 -6 -7 -8 -8 -8 -9 -9 -9 -9 -8 -7 -8 -8 -8 -7 -7 -7 -7 -7 -7 -7 -7 -6 -6 -6 -5
4 4 4 3 2 2 1 1 1 0 -1 -2 -2 -3 -4 -4 -5 -7 -8 -8 -8 -8 -9 -9 -9 -9 -8 -8 -8 -8 -8 -8 -8 -8 -8 -8 -7 -7 -7 -7 -6 -6 -7
3 3 3 2 2 1 1 1 1 -1 -2 -2 -3 -3 -4 -5 -6 -7 -8 -8 -8 -9 -9 -10 -9 -9 -9 -9 -9 -8 -9 -9 -9 -9 -8 -8 -8 -7 -7 -7 -6 -6 -6
2 1 1 1 1 1 0 -0 -1 -2 -2 -2 -3 -4 -5 -5 -6 -7 -8 -8 -8 -9 -9 -9 -10 -10 -10 -10 -10 -10 -10 -10 -10 -9 -9 -9 -8 -7 -7 -6 -6 -6 -6
-0 0 -0 -0 0 1 0 -1 -1 -1 -2 -2 -3 -4 -4 -5 -6 -7 -7 -8 -8 -9 -9 -10 -10 -10 -10 -10 -10 -10 -10 -11 -11 -10 -10 -9 -8 -7 -7 -6 -6 -6 -6
-1 -1 -1 -1 -1 -0 -0 -1 -1 -2 -2 -3 -3 -4 -4 -5 -6 -6 -7 -8 -8 -9 -9 -10 -10 -10 -11 -11 -11 -11 -11 -11 -11 -11 -10 -10 -9 -8 -7 -6 -6 -5 -5
-2 -2 -2 -3 -2 -2 -2 -2 -2 -2 -2 -3 -3 -4 -4 -5 -6 -6 -7 -8 -8 -9 -9 -10 -11 -11 -11 -12 -12 -12 -12 -12 -12 -11 -11 -10 -10 -9 -8 -7 -6 -6 -5
-1 -1 -2 -2 -2 -2 -2 -2 -2 -2 -3 -3 -3 -4 -4 -5 -5 -6 -7 -7 -8 -8 -9 -10 -11 -11 -11 -12 -12 -12 -13 -13 -12 -12 -11 -11 -10 -9 -8 -8 -7 -7 -7
-1 -1 -2 -2 -2 -2 -2 -2 -3 -3 -3 -3 -3 -4 -4 -4 -5 -6 -7 -7 -7 -8 -9 -10 -10 -11 -11 -12 -12 -12 -12 -12 -12 -12 -12 -11 -11 -10 -9 -9 -9 -8 -8
-1 -1 -2 -1 -1 -1 -2 -3 -3 -3 -3 -3 -4 -4 -4 -4 -5 -6 -7 -7 -7 -7 -8 -9 -9 -10 -11 -11 -12 -12 -13 -12 -12 -12 -12 -12 -11 -11 -10 -10 -9 -8 -8
-1 -1 -2 -2 -1 -1 -2 -2 -3 -3 -3 -4 -4 -4 -4 -4 -5 -5 -5 -6 -6 -7 -7 -8 -9 -9 -10 -11 -11 -12 -12 -12 -12 -12 -12 -12 -12 -11 -11 -11 -10 -10 -9
-2 -2 -2 -2 -2 -1 -2 -2 -2 -3 -3 -4 -3 -3 -4 -4 -4 -4 -5 -5 -6 -6 -7 -7 -8 -9 -9 -10 -11 -12 -12 -12 -13 -13 -12 -12 -12 -12 -11 -11 -10 -10 -10
-2 -2 -2 -2 -2 -2 -2 -2 -3 -3 -3 -3 -3 -3 -4 -4 -4 -4 -4 -5 -5 -6 -6 -7 -8 -8 -9 -10 -10 -11 -12 -12 -12 -12 -12 -12 -12 -12 -12 -11 -11 -11 -10
-2 -2 -2 -3 -3 -3 -3 -3 -3 -3 -3 -3 -3 -3 -3 -4 -4 -4 -4 -5 -5 -5 -6 -6 -7 -8 -9 -9 -10 -11 -11 -12 -12 -12 -12 -12 -13 -13 -12 -12 -12 -11 -11
-1 -2 -3 -3 -3 -3 -3 -3 -3 -3 -3 -3 -3 -3 -3 -3 -4 -4 -4 -4 -5 -5 -6 -6 -7 -7 -8 -9 -10 -11 -11 -12 -12 -12 -12 -12 -13 -13 -13 -12 -12 -12 -12
-2 -3 -3 -3 -3 -3 -3 -3 -3 -3 -4 -4 -4 -3 -3 -3 -3 -4 -4 -5 -5 -5 -6 -6 -7 -7 -8 -9 -10 -10 -11 -12 -12 -12 -12 -12 -13 -13 -13 -13 -13 -12 -13
-3 -3 -3 -3 -3 -3 -3 -3 -3 -3 -4 -4 -4 -4 -4 -3 -3 -4 -4 -5 -5 -5 -5 -6 -6 -7 -8 -9 -10 -11 -11 -12 -12 -12 -12 -12 -12 -13 -13 -13 -13 -13 -13

GFSGL_925_temp_003.txt.gz
Temp
9 9 8 8 7 7 6 5 5 5 4 4 4 4 4 3 3 3 3 3 3 1 1 -0 -0 -0 -0 -1 -1 -1 -2 -2 -1 -1 -1 -1 -1 -1 -0 1 2 1 1
8 8 7 7 6 5 5 4 4 3 3 3 3 3 2 3 3 4 3 3 2 1 0 -0 -0 -1 -1 -2 -2 -2 -2 -2 -3 -2 -2 -2 -2 -1 -1 -0 1 1 0
7 7 7 6 5 4 4 3 3 2 2 1 2 2 2 2 3 3 2 1 1 -0 -1 -1 -2 -2 -2 -2 -3 -3 -4 -4 -4 -4 -3 -2 -2 -2 -1 -1 0 0 0
7 7 6 5 4 4 3 3 2 2 1 2 2 2 2 2 3 2 1 -0 -1 -1 -2 -2 -3 -3 -4 -4 -4 -4 -5 -5 -5 -5 -4 -3 -3 -2 -3 -1 0 -0 0
7 6 5 5 4 4 3 3 2 2 2 2 2 2 2 2 1 0 -1 -1 -2 -2 -3 -3 -4 -5 -6 -5 -5 -5 -5 -6 -5 -5 -4 -4 -3 -3 -3 -3 -1 -0 -0
6 5 5 4 4 4 3 2 2 2 2 1 1 2 1 0 -1 -1 -1 -3 -4 -4 -5 -5 -6 -6 -6 -7 -7 -7 -7 -6 -6 -5 -5 -4 -3 -3 -3 -4 -4 -2 1
6 5 5 4 4 3 3 1 1 1 1 1 1 0 -1 -1 -1 -2 -2 -4 -5 -5 -6 -6 -6 -7 -7 -7 -6 -6 -6 -6 -6 -6 -5 -4 -4 -4 -4 -4 -4 -4 -2
5 5 5 5 4 3 3 1 1 1 0 0 0 0 -0 -2 -2 -3 -3 -5 -6 -6 -7 -7 -7 -7 -7 -8 -7 -6 -6 -6 -6 -6 -6 -5 -5 -5 -5 -5 -4 -4 -3
5 5 5 4 4 3 2 1 1 1 1 -0 -1 -2 -2 -3 -3 -4 -5 -6 -7 -7 -7 -7 -8 -8 -8 -7 -6 -7 -6 -6 -6 -6 -7 -7 -6 -6 -6 -5 -5 -4 -3
5 4 4 4 3 2 2 2 2 1 0 -0 -2 -2 -2 -3 -4 -5 -6 -7 -7 -7 -7 -7 -8 -9 -8 -7 -7 -7 -7 -7 -7 -7 -6 -6 -6 -6 -7 -6 -5 -5 -4
4 4 3 3 2 2 2 2 1 0 -1 -2 -2 -2 -3 -4 -4 -5 -7 -7 -7 -7 -7 -7 -8 -9 -8 -8 -8 -8 -8 -8 -8 -8 -7 -6 -6 -6 -6 -6 -5 -5 -4
3 2 1 1 1 1 0 1 1 -0 -2 -3 -3 -3 -4 -4 -5 -5 -7 -8 -8 -8 -8 -8 -9 -9 -9 -9 -9 -9 -9 -9 -9 -8 -7 -7 -6 -6 -6 -6 -6 -6 -5
1 0 -0 -0 -0 -0 -1 0 -0 -2 -3 -3 -3 -4 -4 -5 -5 -6 -6 -7 -8 -8 -8 -9 -9 -10 -10 -10 -10 -11 -10 -10 -9 -8 -8 -7 -7 -7 -7 -6 -6 -5 -5
-1 -1 -1 -1 -1 -1 -1 -0 -1 -2 -2 -2 -3 -3 -4 -5 -6 -6 -7 -7 -8 -8 -9 -9 -9 -10 -10 -10 -10 -10 -11 -11 -11 -10 -9 -9 -8 -7 -6 -5 -5 -5 -5
-2 -1 -1 -2 -2 -1 -1 -0 -0 -1 -1 -2 -3 -4 -4 -5 -5 -5 -6 -7 -7 -8 -9 -9 -9 -9 -9 -9 -10 -10 -11 -11 -11 -11 -10 -9 -8 -7 -6 -6 -5 -5 -4
-2 -1 -0 -1 -2 -2 -2 -2 -1 -1 -2 -2 -3 -3 -3 -4 -5 -5 -6 -7 -7 -8 -8 -8 -9 -10 -10 -10 -10 -10 -10 -11 -12 -11 -10 -10 -9 -8 -7 -6 -6 -5 -4
-2 -1 -1 -1 -1 -2 -2 -2 -1 -2 -2 -2 -3 -3 -3 -4 -4 -5 -6 -7 -7 -8 -8 -8 -9 -9 -10 -10 -10 -10 -11 -12 -13 -12 -11 -11 -10 -9 -7 -7 -6 -6 -5
-1 -1 -1 -1 -2 -2 -2 -2 -3 -3 -3 -3 -3 -3 -4 -4 -4 -5 -6 -7 -6 -7 -8 -8 -8 -9 -9 -9 -10 -10 -11 -12 -12 -13 -12 -12 -11 -10 -8 -8 -7 -7 -6
-1 -1 -1 -1 -1 -1 -1 -2 -3 -4 -4 -4 -4 -4 -3 -4 -4 -5 -6 -6 -6 -6 -7 -7 -8 -8 -9 -9 -10 -11 -12 -12 -13 -13 -12 -12 -12 -11 -10 -9 -9 -9 -8
-2 -1 -1 -1 -1 -1 -1 -1 -3 -3 -3 -3 -4 -4 -4 -4 -5 -5 -6 -6 -7 -7 -7 -7 -7 -8 -9 -9 -10 -11 -12 -12 -12 -12 -12 -12 -12 -12 -11 -10 -10 -9 -8
-2 -2 -3 -2 -2 -3 -3 -3 -2 -3 -3 -3 -3 -3 -3 -4 -4 -4 -5 -6 -5 -6 -6 -7 -7 -7 -7 -8 -9 -11 -11 -12 -13 -13 -13 -12 -13 -12 -12 -11 -10 -10 -9
-1 -1 -1 -2 -2 -3 -3 -3 -3 -3 -3 -4 -4 -4 -3 -4 -4 -5 -5 -4 -4 -4 -5 -5 -6 -7 -7 -8 -9 -10 -11 -12 -12 -13 -13 -13 -13 -12 -12 -12 -11 -11 -10
-2 -2 -2 -2 -3 -3 -4 -4 -4 -4 -4 -4 -4 -4 -4 -4 -4 -4 -4 -4 -4 -4 -4 -5 -5 -6 -6 -7 -8 -9 -10 -11 -12 -12 -12 -13 -13 -12 -12 -12 -12 -11 -11
-2 -2 -2 -3 -3 -4 -4 -4 -4 -4 -3 -4 -4 -4 -5 -4 -4 -4 -3 -3 -4 -4 -4 -5 -5 -5 -6 -7 -8 -8 -9 -10 -11 -12 -12 -12 -13 -13 -12 -12 -12 -12 -12
-2 -3 -3 -3 -3 -3 -4 -4 -4 -4 -4 -4 -4 -4 -4 -4 -4 -4 -4 -4 -3 -4 -4 -5 -5 -5 -6 -7 -7 -8 -9 -10 -11 -11 -12 -12 -12 -13 -13 -13 -13 -12 -13
-2 -3 -3 -3 -3 -3 -3 -3 -4 -4 -4 -4 -4 -4 -4 -4 -5 -5 -5 -4 -4 -4 -4 -5 -5 -5 -6 -7 -7 -8 -9 -10 -11 -11 -12 -12 -13 -13 -13 -13 -13 -12 -12

GFSGL_925_temp_006.txt.gz
Temp
10 9 9 8 8 7 7 6 6 5 5 5 6 5 5 5 5 4 5 4 4 4 4 3 3 2 2 2 2 2 2 2 2 2 1 1 0 0 0 0 1 2 3
9 9 8 8 7 7 6 6 5 5 5 4 4 4 5 4 4 4 4 4 4 4 3 3 2 2 2 1 1 1 1 1 -0 -0 -1 -1 -1 -1 -0 -0 0 2 1
9 9 9 8 7 6 6 5 5 4 4 4 4 4 4 4 4 4 4 4 3 3 2 2 1 1 1 0 0 -0 -1 -2 -2 -2 -2 -2 -2 -2 -1 -1 -0 1 1
9 9 8 7 7 6 5 5 4 4 4 4 4 4 3 3 3 3 3 3 2 2 1 1 0 -0 -1 -2 -2 -2 -2 -3 -3 -3 -3 -3 -2 -1 -1 -1 -1 0 2
9 9 8 7 6 6 5 5 4 4 4 4 3 3 3 3 2 2 2 1 1 1 0 -1 -1 -3 -5 -5 -5 -4 -4 -4 -4 -4 -3 -3 -3 -2 -1 -1 -2 -1 -2
9 8 7 7 6 5 5 4 4 4 4 4 4 3 3 2 -0 -0 0 0 0 -0 -1 -2 -2 -3 -4 -6 -6 -6 -6 -5 -5 -5 -4 -4 -3 -3 -2 -3 -3 -1 0
8 7 7 6 5 5 5 5 4 4 4 4 4 3 2 1 -1 -1 -1 -1 -1 -1 -2 -3 -3 -3 -4 -4 -5 -5 -5 -6 -6 -5 -5 -4 -4 -3 -3 -3 -3 -3 -1
8 7 7 6 6 6 5 5 4 4 4 4 3 3 2 -0 -2 -2 -2 -2 -2 -2 -3 -4 -4 -4 -4 -6 -6 -5 -4 -4 -4 -5 -5 -5 -5 -5 -5 -4 -3 -3 -2
7 7 7 6 6 6 5 5 4 4 4 4 3 2 1 -0 -2 -3 -3 -3 -3 -4 -4 -4 -5 -5 -6 -8 -6 -6 -5 -4 -5 -6 -6 -6 -6 -6 -6 -5 -4 -3 -3
7 6 6 5 5 5 5 4 4 4 3 3 2 0 -1 -1 -3 -4 -4 -3 -4 -4 -4 -4 -5 -7 -8 -8 -7 -7 -6 -6 -6 -6 -6 -5 -5 -5 -6 -5 -4 -4 -3
5 5 5 5 4 4 4 4 4 3 3 1 -0 -1 -2 -2 -3 -4 -5 -5 -5 -5 -5 -4 -5 -7 -8 -8 -8 -7 -8 -8 -7 -7 -6 -6 -5 -4 -4 -4 -4 -4 -3
5 4 4 4 3 3 3 3 3 2 2 0 -2 -2 -1 -3 -4 -4 -5 -6 -6 -6 -6 -5 -6 -8 -8 -9 -9 -9 -9 -9 -7 -7 -6 -6 -5 -5 -5 -5 -5 -4 -4
4 4 3 3 2 2 2 3 3 2 2 1 0 -0 0 -1 -3 -4 -5 -6 -7 -7 -7 -7 -8 -9 -8 -7 -8 -9 -9 -8 -8 -7 -7 -6 -6 -6 -6 -5 -5 -4 -4
3 2 2 2 0 1 2 2 2 2 1 1 1 0 0 -1 -2 -3 -4 -4 -5 -6 -6 -6 -7 -8 -7 -7 -7 -7 -7 -8 -9 -8 -7 -7 -6 -6 -5 -4 -4 -4 -4
2 2 2 1 0 -0 -0 2 2 1 1 1 1 -0 -1 -2 -2 -3 -4 -4 -5 -5 -7 -6 -5 -6 -6 -6 -6 -6 -7 -8 -8 -8 -8 -7 -7 -6 -5 -5 -4 -4 -3
1 1 2 1 1 -0 -0 -0 0 -0 -1 -1 -1 -2 -3 -3 -3 -4 -4 -5 -6 -7 -7 -5 -5 -5 -6 -6 -6 -6 -7 -8 -9 -9 -8 -8 -7 -7 -6 -5 -5 -4 -3
0 1 1 1 1 1 0 -1 -0 -0 -1 -2 -2 -2 -3 -3 -4 -4 -4 -5 -6 -7 -6 -5 -5 -5 -6 -5 -6 -6 -7 -8 -9 -9 -9 -8 -8 -8 -7 -6 -5 -5 -4
-0 0 0 1 1 1 0 -0 -1 -1 -0 -1 -2 -2 -3 -3 -3 -4 -4 -6 -5 -6 -6 -5 -5 -5 -5 -5 -6 -6 -7 -8 -8 -9 -9 -9 -9 -8 -7 -7 -6 -6 -5
0 1 1 -0 -1 -1 -1 -0 -0 -1 -1 -1 -2 -2 -3 -3 -3 -4 -5 -5 -4 -4 -4 -4 -4 -5 -5 -6 -6 -7 -8 -9 -10 -10 -9 -9 -9 -9 -7 -7 -7 -7 -7
1 0 -1 -2 -2 -1 -1 -0 -0 -1 -1 -1 -1 -1 -1 -3 -4 -4 -4 -4 -5 -4 -4 -4 -4 -5 -5 -6 -6 -7 -8 -8 -8 -9 -9 -9 -9 -9 -9 -8 -7 -7 -6
1 1 -0 -1 -1 -2 -2 -1 -1 -1 -1 -1 -1 -2 -2 -2 -2 -3 -3 -3 -4 -4 -4 -4 -4 -5 -5 -6 -7 -7 -7 -8 -9 -9 -9 -9 -10 -9 -9 -9 -8 -7 -7
1 0 -0 -1 -1 -1 -1 -1 -2 -2 -1 -1 -1 -2 -2 -3 -4 -3 -3 -3 -3 -4 -4 -4 -4 -4 -5 -5 -6 -7 -7 -8 -9 -9 -10 -10 -10 -9 -9 -9 -9 -9 -8
-1 -1 -2 -1 -2 -2 -2 -2 -2 -3 -2 -2 -2 -2 -2 -3 -4 -3 -3 -3 -4 -4 -4 -4 -5 -5 -5 -6 -7 -7 -7 -7 -8 -10 -10 -10 -10 -9 -9 -9 -9 -9 -9
-1 -2 -2 -2 -2 -2 -2 -2 -3 -3 -3 -3 -3 -3 -3 -3 -3 -3 -3 -4 -4 -4 -4 -4 -5 -5 -5 -6 -7 -8 -8 -9 -10 -10 -11 -11 -11 -10 -10 -10 -9 -10 -10
-1 -2 -2 -2 -2 -2 -2 -3 -3 -3 -3 -3 -3 -3 -3 -3 -3 -3 -3 -4 -4 -4 -4 -4 -4 -4 -4 -5 -7 -7 -8 -8 -9 -11 -12 -12 -12 -12 -11 -10 -10 -10 -10
-2 -2 -2 -3 -3 -2 -2 -2 -3 -3 -3 -3 -3 -3 -4 -4 -4 -4 -4 -4 -4 -4 -4 -4 -5 -4 -4 -5 -5 -6 -7 -8 -9 -10 -11 -11 -11 -11 -10 -10 -11 -10 -10

GFSGL_925_temp_009.txt.gz
Temp
12 12 11 11 10 10 9 8 8 7 7 7 7 7 7 7 6 6 6 5 6 5 5 4 4 4 3 3 3 3 3 3 4 3 3 2 1 0 0 0 0 1 1
12 11 11 10 10 10 9 8 7 7 7 6 6 6 6 6 6 6 5 5 5 5 4 4 3 3 3 3 3 3 2 2 2 2 1 0 -0 -1 -0 -0 -0 1 1
11 11 11 11 10 9 8 8 7 7 6 6 6 6 6 5 5 5 5 5 4 3 3 3 2 2 2 2 1 1 0 0 0 -1 -1 -1 -1 -1 -1 -0 -0 0 1
12 12 12 11 10 9 8 7 7 6 6 6 6 6 5 5 5 5 5 4 3 3 2 2 2 1 1 -1 -2 -2 -1 -2 -2 -2 -2 -2 -2 -1 -1 -1 -0 -0 -0
12 12 11 10 9 8 8 7 6 6 6 6 6 5 4 4 4 3 2 3 3 2 2 2 1 -0 -2 -4 -4 -4 -4 -3 -3 -3 -3 -3 -3 -2 -2 -1 -2 -1 -1
11 11 10 10 9 8 7 7 6 6 6 6 6 5 4 4 3 2 1 1 2 2 1 1 -0 -1 -1 -3 -4 -5 -5 -5 -4 -4 -3 -3 -3 -3 -2 -2 -2 -2 -1
11 11 10 9 8 8 7 7 7 6 6 6 6 5 4 4 1 0 -1 -1 1 1 0 -0 -1 -1 -2 -2 -3 -4 -4 -3 -4 -4 -4 -4 -4 -3 -4 -4 -3 -2 -2
10 10 9 9 8 8 7 7 7 7 6 6 5 5 4 2 1 -0 -1 -1 -0 -0 -1 -1 -2 -2 -4 -5 -6 -5 -4 -3 -3 -3 -4 -4 -4 -5 -5 -4 -4 -3 -2
9 9 9 8 8 8 7 7 7 6 6 6 5 5 4 1 1 -1 -2 -1 -1 -2 -2 -2 -3 -3 -4 -6 -7 -6 -5 -4 -3 -4 -5 -5 -6 -6 -5 -5 -4 -3 -3
10 9 8 8 7 7 7 7 6 6 6 5 5 4 3 2 -0 -1 -2 -2 -2 -2 -2 -2 -3 -5 -6 -7 -7 -7 -6 -5 -6 -6 -5 -5 -5 -4 -4 -5 -4 -4 -3
8 7 7 7 7 6 6 6 5 5 5 4 3 2 1 -0 -1 -2 -3 -4 -3 -3 -3 -3 -3 -5 -7 -7 -8 -7 -7 -8 -7 -6 -6 -5 -4 -4 -4 -4 -4 -4 -4
6 6 6 6 5 5 4 5 5 5 5 4 2 1 1 -0 -2 -3 -3 -4 -5 -5 -5 -4 -5 -6 -7 -8 -7 -6 -7 -8 -6 -6 -6 -5 -5 -5 -5 -4 -4 -4 -4
5 5 5 5 4 3 3 4 4 5 4 3 2 1 1 1 -2 -3 -3 -4 -5 -6 -5 -5 -6 -6 -7 -6 -5 -6 -7 -6 -6 -6 -6 -6 -6 -5 -5 -5 -4 -4 -3
3 4 3 3 3 2 2 3 4 4 3 2 2 1 2 2 1 -1 -3 -4 -5 -5 -4 -5 -5 -5 -5 -4 -5 -4 -5 -6 -7 -6 -6 -7 -6 -6 -5 -5 -4 -4 -3
1 2 2 2 3 3 2 2 2 3 3 2 2 1 1 -1 -0 -1 -2 -3 -3 -4 -5 -5 -4 -4 -4 -4 -4 -4 -5 -5 -6 -7 -7 -7 -7 -6 -5 -5 -4 -4 -3
1 1 2 2 2 3 2 1 1 1 1 1 1 0 -1 -1 -2 -3 -3 -3 -4 -5 -5 -4 -4 -4 -4 -4 -4 -4 -5 -5 -6 -7 -7 -7 -7 -7 -6 -5 -5 -4 -4
1 2 1 2 2 3 2 0 -0 1 0 -0 -0 -1 -1 -2 -3 -3 -3 -4 -5 -6 -6 -4 -4 -4 -4 -4 -4 -4 -4 -5 -7 -6 -7 -7 -7 -7 -6 -6 -5 -5 -4
0 1 1 2 2 1 1 1 0 0 0 -0 -1 -1 -2 -2 -2 -3 -3 -4 -5 -5 -5 -4 -4 -4 -4 -4 -4 -4 -5 -6 -7 -7 -7 -7 -7 -7 -6 -5 -6 -6 -5
2 2 2 1 1 -0 -0 -0 0 -0 -0 -0 -0 -1 -1 -1 -2 -3 -4 -4 -4 -4 -3 -3 -3 -3 -3 -4 -4 -5 -6 -7 -7 -8 -7 -7 -8 -7 -7 -7 -6 -6 -6
2 2 2 1 0 -0 -1 -1 -0 0 -0 -0 -1 -1 0 -2 -3 -4 -4 -4 -4 -3 -3 -3 -3 -3 -3 -4 -5 -5 -6 -6 -7 -7 -7 -7 -8 -8 -7 -7 -7 -6 -5
3 3 2 1 0 0 -0 -0 -0 -0 -0 -0 -0 -1 -1 -1 -1 -2 -2 -3 -3 -3 -3 -3 -3 -3 -4 -4 -5 -5 -6 -6 -6 -7 -7 -7 -8 -8 -7 -7 -7 -7 -6
3 2 2 1 -0 -1 -0 -0 -0 -1 -1 -1 -1 -1 -1 -2 -2 -2 -2 -2 -2 -3 -3 -3 -3 -3 -3 -4 -5 -5 -5 -6 -7 -7 -8 -8 -9 -8 -8 -8 -7 -7 -7
1 1 0 -0 -1 -1 -1 -1 -1 -2 -2 -2 -2 -2 -2 -2 -2 -2 -2 -2 -3 -3 -3 -3 -3 -3 -4 -4 -4 -5 -6 -6 -6 -7 -8 -8 -8 -8 -8 -8 -8 -8 -8
-0 -0 -0 -0 -1 -1 -1 -1 -1 -2 -2 -2 -2 -2 -2 -2 -2 -2 -2 -3 -3 -3 -3 -3 -3 -4 -4 -4 -4 -5 -6 -6 -7 -8 -9 -9 -9 -8 -9 -8 -8 -8 -8
-1 -1 -1 -1 -1 -2 -2 -2 -2 -2 -2 -2 -2 -3 -3 -2 -2 -2 -3 -3 -3 -3 -3 -3 -4 -4 -4 -4 -5 -5 -6 -7 -7 -8 -9 -10 -10 -9 -10 -9 -9 -9 -9
-3 -2 -2 -2 -2 -2 -2 -3 -2 -2 -2 -3 -3 -3 -3 -3 -3 -3 -3 -4 -4 -4 -4 -4 -4 -4 -4 -4 -5 -5 -6 -7 -7 -8 -9 -9 -9 -9 -9 -9 -9 -9 -9

GFSGL_925_temp_012.txt.gz
Temp
13 12 12 11 10 10 10 9 8 8 7 7 7 7 7 7 7 6 6 6 6 5 5 4 3 3 3 3 3 3 3 2 1 1 1 1 -0 -1 -1 -1 -1 -1 -0
13 12 11 11 11 10 10 9 8 7 7 7 6 6 6 6 6 5 5 5 5 3 2 3 2 2 2 2 2 1 0 -0 -0 -1 -1 -1 -1 -1 -1 -1 -1 -1 -0
13 12 11 11 10 10 10 9 8 7 7 6 6 6 6 6 5 5 5 5 4 3 3 2 2 2 1 1 -0 -1 -2 -2 -2 -2 -2 -2 -2 -2 -2 -2 -2 -1 -1
13 12 12 11 11 10 9 8 8 7 6 6 6 6 6 5 5 5 5 4 3 3 3 2 2 1 0 -1 -2 -3 -3 -3 -3 -3 -3 -3 -3 -3 -3 -3 -2 -2 -2
13 13 13 11 10 9 9 8 7 7 6 6 6 6 6 5 4 4 3 3 2 2 2 2 1 1 -0 -1 -2 -3 -4 -4 -4 -4 -4 -4 -4 -3 -3 -3 -3 -4 -3
12 12 12 11 10 9 8 7 7 7 7 6 6 6 6 5 4 3 3 2 1 1 1 1 0 -0 -1 -2 -3 -3 -4 -4 -4 -5 -4 -4 -4 -4 -4 -5 -4 -4 -4
12 12 11 10 9 8 7 7 7 7 7 7 6 6 6 5 4 2 2 1 0 0 0 -0 -1 -1 -2 -2 -3 -4 -5 -5 -4 -3 -3 -4 -5 -5 -5 -5 -5 -5 -4
12 11 9 8 8 8 8 8 8 8 7 7 6 6 5 4 3 2 1 0 -0 -0 -1 -1 -1 -2 -3 -4 -5 -5 -6 -5 -5 -4 -5 -5 -5 -5 -5 -6 -5 -5 -5
11 8 7 7 8 8 8 7 7 7 7 7 6 6 5 3 2 1 0 -1 -1 -1 -2 -2 -2 -2 -3 -4 -5 -7 -7 -6 -5 -6 -6 -6 -5 -5 -5 -5 -6 -6 -5
9 8 7 5 7 7 5 6 6 6 6 6 6 5 4 2 1 -0 -1 -1 -2 -2 -2 -2 -2 -3 -4 -5 -7 -7 -7 -7 -7 -7 -7 -6 -6 -5 -5 -5 -5 -5 -5
7 5 5 5 5 5 5 5 5 5 5 5 4 3 2 1 1 -0 -1 -2 -3 -3 -4 -3 -3 -5 -5 -5 -7 -7 -7 -7 -7 -7 -6 -6 -6 -5 -5 -5 -5 -5 -5
4 3 5 4 4 4 4 3 4 4 4 4 3 2 1 1 0 -0 -1 -2 -3 -4 -4 -5 -4 -5 -5 -6 -6 -6 -6 -6 -7 -6 -6 -6 -6 -6 -6 -5 -5 -5 -4
4 4 3 3 3 2 2 2 2 3 4 4 3 1 1 1 0 -0 -1 -2 -3 -4 -4 -5 -5 -5 -5 -5 -5 -5 -5 -6 -6 -6 -7 -6 -7 -6 -6 -5 -5 -5 -4
2 1 2 2 2 2 2 2 2 2 3 3 3 2 1 1 1 -0 -2 -3 -4 -4 -4 -5 -5 -5 -4 -4 -4 -4 -4 -5 -6 -6 -7 -7 -7 -7 -6 -6 -5 -5 -4
1 1 1 2 2 2 3 3 2 2 1 1 2 2 1 1 1 -0 -1 -3 -3 -4 -5 -5 -5 -4 -4 -4 -4 -4 -4 -5 -5 -6 -7 -7 -7 -7 -7 -6 -6 -5 -5
0 1 1 2 2 2 2 2 2 2 1 1 1 1 1 1 -0 -1 -1 -2 -3 -3 -4 -5 -5 -4 -4 -4 -4 -4 -4 -4 -5 -6 -7 -7 -7 -7 -7 -7 -6 -5 -5
1 1 1 1 2 2 2 2 1 1 1 1 1 1 -0 -1 -1 -1 -2 -3 -3 -4 -5 -5 -5 -4 -4 -4 -4 -4 -4 -5 -6 -6 -7 -7 -7 -7 -7 -7 -6 -6 -6
2 1 1 1 2 2 2 1 0 0 -0 0 1 -0 -0 -1 -1 -2 -2 -3 -5 -5 -5 -5 -5 -4 -4 -4 -4 -4 -4 -5 -6 -7 -7 -7 -7 -7 -7 -7 -7 -6 -6
2 2 2 2 2 1 1 1 -0 -1 -1 -1 -0 -0 -0 -0 -1 -2 -2 -4 -5 -5 -4 -5 -5 -4 -4 -3 -4 -4 -5 -5 -6 -7 -7 -7 -7 -8 -8 -7 -7 -7 -7
3 3 3 3 2 2 1 0 -0 -1 -1 -0 -1 -1 -1 -1 -2 -3 -3 -4 -4 -4 -4 -4 -3 -3 -3 -3 -3 -4 -5 -5 -6 -6 -7 -7 -7 -8 -8 -8 -7 -7 -7
3 3 3 3 2 2 1 -0 -1 -1 -1 -1 -0 -0 -0 -1 -2 -2 -3 -3 -4 -4 -4 -4 -3 -3 -3 -3 -3 -4 -5 -5 -5 -6 -7 -7 -8 -8 -8 -8 -7 -7 -7
0 1 1 1 1 0 -0 -1 -1 -1 -1 -1 -1 -1 -1 -1 -2 -2 -2 -2 -3 -3 -3 -3 -3 -3 -3 -3 -4 -4 -5 -5 -5 -6 -7 -7 -8 -8 -8 -8 -8 -8 -8
-2 -2 -1 -0 0 0 -1 -1 -1 -1 -1 -1 -2 -2 -2 -2 -2 -2 -2 -2 -2 -3 -3 -3 -3 -3 -3 -3 -4 -4 -4 -5 -5 -5 -6 -7 -8 -8 -8 -8 -8 -8 -8
-3 -3 -3 -3 -3 -2 -1 -1 -1 -1 -1 -2 -2 -2 -2 -2 -2 -2 -2 -2 -2 -2 -3 -3 -3 -3 -3 -3 -4 -4 -4 -5 -5 -5 -6 -7 -8 -8 -8 -9 -8 -8 -9
-4 -4 -3 -3 -3 -2 -2 -2 -1 -2 -2 -3 -2 -2 -2 -3 -3 -3 -3 -3 -3 -4 -3 -3 -4 -4 -4 -4 -4 -4 -4 -4 -5 -6 -7 -7 -8 -9 -9 -9 -9 -9 -9
-7 -7 -7 -5 -3 -3 -2 -2 -3 -3 -3 -3 -3 -3 -4 -4 -4 -4 -5 -5 -5 -5 -4 -4 -4 -4 -4 -4 -4 -4 -4 -4 -5 -6 -7 -8 -9 -10 -10 -9 -9 -9 -9

GFSGL_925_temp_015.txt.gz
Temp
13 13 12 11 11 10 10 9 9 8 7 7 7 6 6 6 6 6 6 5 5 4 3 3 2 2 2 2 2 1 0 -1 -2 -2 -2 -2 -2 -2 -2 -2 -2 -2 -2
13 12 11 11 10 10 9 9 8 8 7 7 6 6 6 6 6 5 5 5 4 4 3 2 2 2 2 1 1 0 -1 -2 -3 -4 -4 -4 -3 -3 -3 -3 -3 -3 -2
13 12 11 11 10 10 10 9 8 8 7 7 6 6 6 6 6 5 5 4 4 3 3 2 2 2 1 0 -0 -1 -2 -3 -3 -4 -5 -4 -4 -4 -4 -3 -3 -3 -3
13 12 12 11 11 10 10 9 8 7 7 6 6 6 6 6 5 5 4 4 3 3 2 2 2 1 0 -0 -1 -2 -3 -3 -4 -4 -5 -5 -5 -4 -4 -4 -4 -4 -5
13 12 12 11 11 10 9 8 8 7 7 7 6 6 6 6 5 4 4 4 3 3 2 1 1 0 -0 -1 -2 -3 -4 -4 -5 -5 -5 -5 -5 -5 -5 -5 -5 -5 -5
13 12 12 11 10 9 8 7 6 6 6 7 6 6 6 6 5 4 3 3 2 2 1 0 0 -0 -1 -2 -3 -3 -4 -5 -5 -5 -5 -5 -5 -5 -5 -5 -5 -6 -6
13 12 10 10 9 7 6 5 6 6 7 7 7 6 6 6 5 4 3 2 2 1 -0 -0 -1 -1 -2 -2 -3 -3 -4 -4 -5 -5 -5 -6 -6 -6 -6 -6 -6 -6 -6
12 9 8 8 7 6 5 6 7 7 6 6 7 6 6 5 4 3 2 2 1 -0 -1 -1 -2 -2 -2 -3 -3 -4 -5 -5 -6 -6 -6 -6 -7 -6 -6 -6 -6 -6 -6
8 8 7 7 6 4 5 6 6 4 5 6 6 6 5 4 3 2 1 0 -0 -1 -1 -2 -2 -2 -3 -3 -4 -5 -6 -6 -6 -7 -7 -6 -6 -6 -6 -6 -5 -5 -6
5 5 5 5 4 5 5 4 4 4 4 4 4 5 5 4 3 2 1 -0 -1 -1 -2 -3 -3 -3 -4 -4 -5 -6 -7 -6 -6 -7 -6 -6 -6 -6 -6 -6 -6 -6 -6
5 4 3 3 3 4 3 4 3 3 3 3 4 3 4 3 2 1 0 -1 -1 -2 -3 -3 -4 -4 -4 -5 -6 -6 -6 -6 -6 -6 -6 -6 -6 -6 -6 -6 -6 -6 -6
3 3 3 3 3 3 3 3 3 2 2 3 3 2 2 2 1 1 0 -0 -1 -2 -2 -3 -4 -5 -5 -5 -5 -5 -5 -6 -6 -6 -6 -6 -7 -7 -7 -6 -6 -6 -5
4 3 3 3 2 2 2 2 2 2 2 2 2 2 2 2 1 0 0 0 -1 -2 -3 -3 -4 -5 -5 -5 -5 -5 -5 -5 -5 -6 -6 -7 -7 -7 -7 -7 -6 -5 -5
3 2 2 1 1 1 1 2 2 2 2 1 1 1 2 2 1 0 -0 -0 -1 -2 -3 -3 -4 -4 -5 -5 -4 -4 -4 -4 -5 -5 -6 -6 -7 -7 -7 -7 -7 -6 -6
2 2 1 1 1 1 2 2 2 2 2 2 1 1 1 1 1 1 0 -1 -1 -2 -3 -4 -5 -5 -4 -4 -4 -4 -4 -4 -5 -5 -6 -7 -7 -7 -7 -7 -7 -6 -6
2 1 1 1 1 2 2 2 2 2 2 1 1 1 1 1 0 0 -1 -2 -2 -3 -4 -5 -5 -5 -5 -5 -4 -4 -4 -4 -5 -6 -6 -7 -7 -8 -8 -7 -7 -7 -7
2 2 2 1 1 1 1 2 1 1 1 0 0 1 1 1 -0 -1 -1 -2 -3 -3 -4 -5 -5 -5 -5 -5 -4 -4 -4 -4 -5 -6 -6 -7 -7 -8 -8 -8 -7 -7 -8
2 2 2 2 2 1 1 1 1 0 -0 -0 -0 -0 -0 0 0 -0 -2 -3 -4 -4 -4 -4 -5 -5 -5 -5 -4 -4 -4 -5 -5 -5 -6 -7 -7 -8 -8 -8 -8 -8 -8
2 2 2 2 2 2 2 1 1 1 0 -0 0 0 0 -0 -0 -1 -1 -3 -4 -4 -4 -5 -5 -5 -4 -4 -4 -4 -4 -4 -4 -5 -6 -7 -7 -8 -8 -8 -8 -8 -8
0 0 0 0 1 1 1 1 0 -0 0 -1 -1 -1 -0 -2 -2 -2 -2 -3 -4 -4 -4 -5 -4 -4 -4 -4 -4 -3 -4 -4 -5 -5 -6 -6 -7 -8 -8 -8 -8 -8 -8
-2 -2 -2 -2 -1 -1 -0 -0 -1 -1 -1 -2 -1 -1 -0 -1 -2 -2 -2 -3 -4 -4 -4 -4 -4 -4 -4 -4 -3 -3 -3 -4 -4 -5 -5 -6 -7 -7 -8 -8 -8 -8 -8
-5 -4 -4 -4 -4 -3 -3 -2 -2 -1 -1 -1 -1 -1 -1 -1 -1 -2 -2 -2 -3 -3 -3 -3 -3 -3 -3 -3 -3 -3 -3 -4 -4 -4 -5 -6 -7 -7 -8 -8 -8 -8 -8
-6 -6 -6 -5 -5 -4 -4 -4 -3 -3 -2 -1 -1 -2 -2 -2 -2 -2 -2 -2 -2 -2 -3 -3 -3 -3 -3 -3 -3 -3 -4 -4 -3 -4 -5 -5 -6 -7 -8 -8 -9 -8 -8
-8 -7 -8 -8 -8 -8 -6 -4 -3 -3 -3 -2 -2 -2 -2 -2 -3 -3 -2 -3 -3 -3 -3 -3 -3 -3 -3 -3 -4 -4 -4 -4 -4 -4 -4 -5 -6 -7 -8 -8 -9 -9 -9
-10 -11 -11 -11 -10 -9 -9 -8 -7 -6 -4 -3 -3 -3 -3 -3 -3 -3 -4 -4 -4 -4 -4 -4 -4 -4 -4 -4 -4 -4 -4 -4 -4 -4 -5 -5 -6 -7 -8 -8 -9 -9 -9
-12 -12 -13 -13 -12 -12 -11 -11 -11 -11 -10 -10 -9 -8 -8 -8 -7 -7 -7 -7 -7 -7 -6 -6 -5 -5 -5 -5 -5 -5 -5 -4 -4 -4 -4 -5 -6 -7 -8 -9 -9 -9 -9

GFSGL_925_temp_018.txt.gz
Temp
13 13 13 12 12 11 11 10 9 8 8 8 7 7 6 6 6 6 5 5 5 4 3 3 3 2 2 2 1 1 0 -1 -3 -3 -3 -3 -4 -4 -4 -4 -3 -3 -3
14 13 13 12 11 10 10 9 9 8 8 7 7 6 6 6 6 5 5 5 4 4 3 3 2 2 2 1 1 0 -1 -2 -3 -4 -4 -4 -4 -4 -4 -4 -4 -4 -4
13 13 12 11 11 10 10 9 9 8 8 7 7 6 6 6 6 5 5 5 4 3 3 2 2 2 1 1 0 -1 -2 -3 -3 -4 -5 -5 -5 -4 -4 -5 -5 -5 -4
12 12 12 11 11 10 10 9 9 8 7 7 7 6 6 6 6 5 5 4 4 3 2 2 2 1 0 -0 -1 -2 -3 -3 -4 -4 -5 -6 -6 -5 -5 -5 -5 -5 -5
12 12 12 11 11 10 9 8 8 7 7 7 7 6 6 6 6 5 5 4 3 3 2 1 1 0 -0 -1 -2 -3 -3 -4 -4 -5 -6 -6 -6 -6 -6 -6 -6 -6 -6
12 12 11 11 10 9 7 7 6 6 6 6 7 6 6 6 6 5 5 4 3 2 2 1 0 -0 -1 -1 -2 -3 -4 -5 -5 -6 -7 -7 -7 -7 -7 -7 -7 -7 -6
11 11 10 9 8 7 6 5 5 5 5 6 5 6 6 6 6 5 4 3 2 1 1 -0 -1 -1 -2 -2 -3 -3 -3 -4 -5 -6 -7 -7 -7 -7 -7 -7 -7 -7 -7
10 9 7 7 6 5 4 4 4 4 5 4 5 5 6 6 5 5 4 2 2 1 -0 -1 -1 -2 -2 -3 -3 -3 -4 -4 -5 -6 -7 -7 -7 -7 -7 -7 -6 -6 -6
7 7 7 6 5 4 4 4 3 4 4 4 4 4 5 5 5 4 3 2 1 0 -1 -1 -2 -2 -3 -3 -4 -4 -4 -4 -5 -6 -6 -6 -7 -7 -7 -6 -7 -7 -6
5 5 4 4 4 4 3 3 3 3 3 3 3 3 3 4 4 3 2 2 1 -0 -1 -2 -2 -3 -3 -4 -4 -5 -6 -5 -6 -6 -6 -6 -6 -6 -7 -7 -7 -7 -7
4 4 4 4 4 4 3 3 3 3 2 2 2 2 3 3 3 3 2 1 1 -1 -1 -2 -2 -3 -4 -4 -5 -5 -5 -5 -5 -6 -6 -6 -6 -7 -7 -7 -7 -7 -7
4 4 4 4 3 2 3 3 3 2 2 2 2 3 3 2 2 2 1 1 0 -1 -1 -1 -2 -3 -4 -5 -5 -5 -5 -5 -6 -6 -6 -6 -7 -7 -7 -7 -7 -6 -6
5 4 2 2 2 2 2 2 2 2 2 2 2 2 2 2 2 1 1 1 -0 -1 -1 -2 -2 -3 -4 -4 -4 -5 -5 -5 -5 -5 -5 -6 -7 -7 -7 -7 -7 -6 -6
3 3 3 2 2 2 1 1 1 2 2 1 2 1 1 1 1 1 0 0 -0 -1 -1 -2 -3 -3 -4 -4 -5 -4 -4 -4 -5 -5 -5 -6 -7 -7 -7 -8 -7 -7 -7
2 2 2 2 1 1 1 1 1 2 1 2 2 2 1 1 1 1 1 0 -0 -0 -1 -3 -3 -4 -4 -4 -4 -4 -4 -5 -5 -5 -5 -6 -7 -7 -8 -8 -8 -8 -8
2 2 2 2 2 2 1 1 2 2 2 2 2 1 1 1 0 0 0 0 0 -1 -3 -4 -4 -4 -4 -4 -5 -5 -4 -4 -5 -5 -5 -6 -7 -8 -8 -8 -8 -8 -8
1 1 2 2 2 2 2 1 -0 2 2 1 1 1 1 0 -0 0 -0 -0 -1 -2 -4 -5 -5 -4 -4 -4 -5 -5 -5 -4 -5 -5 -6 -6 -7 -7 -8 -8 -8 -8 -8
0 -0 -0 -1 -1 -1 -1 -1 -1 -1 -0 0 1 1 1 1 1 -0 -0 -1 -3 -3 -4 -5 -5 -4 -4 -4 -5 -5 -4 -4 -5 -5 -5 -6 -7 -7 -8 -8 -8 -8 -8
-2 -2 -2 -3 -2 -2 -2 -2 -2 -1 -1 -1 -1 -1 -0 1 0 -0 -1 -2 -3 -4 -5 -5 -5 -5 -4 -4 -4 -4 -4 -4 -4 -5 -5 -6 -6 -7 -8 -8 -8 -8 -8
-5 -5 -4 -5 -5 -4 -4 -3 -3 -2 -2 -1 -1 -2 -2 -2 -2 -1 -2 -3 -3 -4 -4 -4 -4 -5 -4 -4 -4 -4 -4 -4 -4 -5 -5 -5 -6 -7 -7 -8 -8 -8 -8
-6 -6 -6 -6 -6 -6 -6 -6 -5 -5 -4 -4 -3 -2 -2 -3 -2 -2 -2 -2 -3 -4 -4 -4 -5 -4 -4 -4 -4 -4 -4 -4 -4 -4 -4 -5 -6 -7 -7 -8 -8 -8 -8
-8 -8 -8 -8 -8 -8 -8 -8 -8 -6 -5 -4 -4 -3 -2 -3 -2 -2 -2 -2 -2 -2 -3 -3 -4 -4 -4 -4 -4 -4 -4 -4 -4 -4 -4 -4 -6 -6 -7 -8 -8 -9 -9
-10 -11 -11 -11 -11 -11 -10 -10 -9 -9 -9 -8 -7 -4 -3 -3 -3 -3 -3 -2 -2 -3 -3 -3 -3 -4 -4 -4 -3 -4 -4 -3 -3 -3 -4 -5 -5 -6 -7 -8 -8 -9 -9
-12 -13 -13 -13 -13 -13 -13 -12 -11 -12 -12 -11 -11 -10 -9 -6 -3 -3 -2 -3 -3 -4 -4 -3 -3 -3 -4 -4 -3 -3 -3 -4 -4 -4 -4 -4 -5 -5 -7 -8 -8 -9 -9
-13 -14 -14 -15 -15 -15 -14 -14 -14 -14 -13 -13 -13 -12 -12 -11 -10 -10 -10 -9 -8 -7 -6 -5 -5 -4 -4 -4 -4 -4 -4 -4 -4 -4 -4 -5 -5 -5 -6 -7 -8 -9 -9
-14 -15 -15 -16 -16 -16 -16 -15 -15 -15 -15 -15 -14 -14 -13 -13 -13 -13 -13 -12 -11 -10 -9 -8 -7 -6 -6 -5 -5 -5 -5 -5 -5 -4 -4 -5 -5 -5 -6 -7 -8 -9 -9

GFSGL_925_temp_021.txt.gz
Temp
14 14 14 13 13 12 11 11 9 9 8 8 7 7 7 6 6 6 5 5 5 4 4 4 3 3 2 2 2 1 0 -1 -3 -2 -2 -3 -3 -4 -4 -4 -4 -4 -4
14 13 13 12 12 11 11 10 9 9 8 8 8 7 7 6 6 6 5 5 5 5 4 3 3 2 2 1 1 0 -1 -1 -2 -4 -4 -4 -4 -4 -4 -5 -4 -5 -5
11 11 11 11 11 11 10 10 9 9 8 8 7 7 6 6 6 6 5 5 5 5 4 3 3 2 2 1 1 -0 -1 -2 -3 -4 -5 -5 -5 -5 -5 -5 -5 -5 -5
9 10 11 11 11 11 10 10 9 9 8 8 7 7 6 6 6 6 5 5 5 4 3 3 2 2 1 1 -0 -1 -2 -3 -3 -4 -5 -6 -6 -6 -6 -6 -6 -6 -6
10 10 10 11 11 10 10 9 9 8 7 7 6 5 6 6 6 6 6 5 4 4 2 2 1 1 0 -0 -1 -1 -2 -3 -4 -5 -6 -7 -7 -7 -7 -7 -8 -7 -7
11 10 10 10 9 9 9 8 7 6 6 5 5 5 5 6 6 6 6 5 4 3 2 1 1 0 -0 -1 -1 -2 -3 -4 -5 -6 -6 -7 -7 -7 -7 -8 -8 -8 -6
11 9 9 9 8 8 7 5 5 5 5 5 4 4 5 5 6 6 5 5 3 3 2 1 1 -0 -1 -1 -2 -3 -4 -4 -5 -6 -6 -7 -7 -7 -7 -8 -7 -7 -7
8 8 7 7 6 5 5 5 5 4 4 3 3 4 4 5 5 5 5 4 3 2 2 1 0 -1 -1 -2 -3 -4 -4 -4 -5 -5 -6 -6 -7 -7 -7 -7 -7 -7 -7
6 5 4 4 4 4 4 4 4 4 3 3 3 3 4 4 4 4 4 3 2 2 1 0 -0 -1 -2 -3 -3 -4 -4 -5 -5 -5 -6 -6 -6 -6 -7 -7 -7 -8 -7
3 3 4 4 3 3 3 4 3 3 3 3 3 3 3 3 3 3 3 3 2 1 1 -0 -1 -1 -2 -3 -4 -4 -5 -5 -5 -5 -5 -5 -6 -6 -7 -7 -7 -8 -8
4 4 4 4 3 3 4 3 2 2 3 3 3 2 2 2 3 3 3 2 2 1 0 -0 -1 -1 -2 -3 -4 -5 -5 -5 -5 -5 -5 -6 -6 -6 -7 -7 -7 -8 -8
4 4 4 3 3 2 2 2 3 2 2 2 2 2 2 2 3 3 2 2 2 1 0 0 -0 -2 -2 -3 -4 -5 -5 -5 -6 -5 -5 -5 -5 -6 -7 -7 -7 -7 -7
3 3 3 2 2 2 2 2 2 2 1 1 1 1 2 2 2 2 1 1 1 0 -0 -0 -1 -2 -3 -3 -4 -5 -5 -5 -5 -5 -5 -5 -5 -6 -7 -7 -8 -7 -7
3 2 2 2 2 2 1 1 1 1 1 1 1 1 1 1 1 1 1 1 0 -0 -1 -2 -2 -3 -3 -3 -4 -4 -4 -5 -5 -5 -5 -5 -5 -6 -7 -8 -8 -8 -8
2 2 2 1 1 1 1 1 1 1 1 1 1 1 0 0 1 1 1 0 0 -0 0 -1 -4 -4 -4 -4 -4 -4 -4 -4 -5 -5 -5 -5 -5 -6 -7 -8 -8 -8 -8
0 0 0 -0 -0 -0 -0 0 1 1 1 1 1 1 1 1 1 1 1 0 -0 -0 -3 -4 -5 -5 -5 -5 -4 -4 -4 -4 -5 -5 -5 -5 -6 -6 -8 -8 -8 -8 -8
-1 -2 -2 -2 -2 -3 -3 -3 -3 -1 -1 -0 0 1 1 1 1 1 1 0 -0 -1 -4 -5 -5 -5 -4 -5 -5 -5 -4 -4 -4 -5 -5 -5 -6 -7 -7 -8 -8 -8 -8
-3 -3 -4 -4 -5 -5 -5 -4 -4 -3 -3 -2 -2 -2 -1 -0 0 -0 -0 -1 -2 -2 -3 -4 -4 -5 -5 -5 -5 -5 -4 -4 -5 -5 -5 -5 -6 -7 -7 -8 -8 -9 -9
-5 -6 -6 -6 -6 -6 -6 -6 -6 -6 -6 -5 -5 -4 -3 -3 -3 -2 -2 -3 -2 -3 -3 -4 -4 -4 -5 -5 -5 -5 -4 -4 -4 -5 -5 -5 -5 -7 -7 -7 -8 -9 -9
-7 -7 -8 -8 -8 -8 -8 -8 -8 -8 -8 -7 -6 -6 -5 -5 -4 -4 -3 -3 -3 -2 -3 -4 -3 -4 -5 -5 -5 -5 -5 -5 -4 -5 -5 -5 -5 -6 -7 -7 -8 -8 -9
-10 -10 -9 -10 -10 -10 -10 -10 -10 -10 -9 -9 -10 -10 -9 -8 -5 -4 -3 -3 -3 -3 -3 -3 -3 -4 -4 -5 -5 -5 -5 -5 -4 -4 -4 -4 -5 -6 -6 -7 -8 -8 -9
-11 -11 -11 -12 -12 -12 -13 -12 -12 -12 -12 -12 -12 -11 -11 -11 -10 -10 -5 -3 -3 -2 -2 -2 -3 -3 -4 -4 -5 -5 -5 -4 -4 -4 -4 -4 -4 -5 -6 -7 -8 -8 -9
-13 -13 -13 -13 -14 -14 -14 -14 -14 -14 -14 -14 -13 -13 -13 -12 -12 -12 -11 -11 -4 -3 -3 -3 -3 -3 -3 -3 -4 -4 -5 -4 -3 -4 -4 -4 -4 -5 -6 -7 -8 -8 -9
-14 -14 -15 -15 -15 -16 -16 -16 -16 -16 -16 -16 -15 -15 -14 -14 -13 -13 -13 -12 -12 -10 -9 -6 -5 -5 -4 -4 -4 -4 -4 -4 -3 -4 -4 -4 -5 -5 -6 -7 -8 -8 -8
-14 -15 -16 -16 -17 -17 -17 -17 -17 -18 -17 -17 -17 -16 -16 -15 -15 -15 -15 -14 -13 -12 -12 -10 -9 -8 -7 -5 -5 -5 -5 -4 -4 -4 -4 -5 -5 -5 -6 -6 -7 -8 -9
-15 -16 -17 -17 -18 -18 -18 -19 -19 -19 -19 -19 -18 -18 -17 -17 -17 -17 -16 -16 -15 -14 -12 -11 -10 -9 -8 -7 -6 -6 -5 -5 -5 -5 -5 -5 -5 -6 -6 -6 -7 -8 -8

GFSGL_925_temp_024.txt.gz
Temp
14 14 13 12 11 11 11 11 11 10 9 9 9 8 7 6 6 6 6 5 5 5 5 4 4 3 3 2 2 2 1 -0 -2 -2 -2 -2 -3 -3 -4 -4 -4 -5 -5
15 13 11 11 10 10 11 11 11 10 9 9 8 7 7 6 6 6 5 5 5 5 5 4 4 3 3 2 2 1 1 -0 -2 -3 -3 -3 -3 -4 -5 -5 -5 -5 -5
13 12 11 10 11 11 11 11 10 9 9 8 7 7 6 6 6 5 5 5 5 5 5 4 4 3 2 2 1 1 -0 -1 -2 -4 -4 -5 -5 -5 -5 -6 -6 -6 -6
11 11 10 10 10 11 10 9 9 9 8 8 7 7 6 5 5 6 6 6 6 5 5 4 3 2 2 2 1 0 -1 -2 -3 -4 -4 -5 -6 -5 -6 -7 -7 -7 -7
10 9 8 9 10 9 9 9 9 8 8 7 6 6 5 4 5 5 5 5 5 5 4 3 3 2 2 1 0 -0 -1 -2 -3 -4 -5 -6 -7 -7 -7 -7 -8 -8 -8
10 10 9 9 8 8 8 8 8 7 6 5 5 4 4 4 5 5 5 4 4 4 4 3 2 2 1 0 -0 -1 -2 -3 -4 -5 -5 -7 -7 -7 -7 -8 -8 -8 -6
8 8 8 8 7 7 8 7 6 5 5 4 4 4 4 4 4 5 5 5 5 4 3 3 2 1 1 -0 -1 -2 -3 -3 -4 -5 -6 -6 -7 -7 -7 -7 -8 -8 -7
8 7 7 7 6 6 5 5 4 4 4 3 3 3 3 4 4 4 4 4 4 4 3 2 2 1 1 -0 -1 -2 -3 -4 -4 -5 -5 -6 -6 -7 -7 -7 -7 -8 -8
5 5 4 5 4 4 4 3 3 3 3 3 3 1 1 3 3 3 3 3 3 3 2 2 1 1 0 -1 -2 -3 -3 -4 -4 -5 -5 -6 -7 -6 -6 -7 -7 -8 -8
3 3 3 4 3 3 3 3 3 3 3 2 1 1 2 3 3 2 2 2 2 2 1 1 1 0 -0 -1 -2 -3 -4 -4 -4 -5 -5 -6 -6 -6 -6 -7 -7 -9 -8
3 4 3 3 4 4 4 3 3 2 2 2 2 2 2 2 2 2 2 2 2 1 1 1 1 0 -1 -1 -2 -3 -3 -4 -5 -5 -6 -6 -5 -5 -6 -6 -7 -8 -9
4 4 4 3 3 3 2 2 2 1 1 1 1 1 2 2 2 2 2 1 2 0 1 1 1 0 -1 -1 -2 -3 -4 -5 -5 -6 -6 -6 -5 -5 -6 -6 -7 -8 -8
3 2 2 2 2 2 1 1 1 1 1 1 0 0 1 2 2 2 1 2 1 -0 0 1 1 -0 -1 -2 -2 -3 -4 -5 -5 -6 -6 -5 -5 -5 -6 -7 -7 -8 -8
1 1 1 1 1 1 1 0 0 0 0 0 -0 -1 -0 -0 0 1 1 1 1 0 -0 -0 -0 -0 -1 -3 -3 -4 -4 -4 -5 -5 -5 -5 -5 -5 -6 -7 -8 -8 -8
0 -0 -1 -1 -1 -1 -1 -1 -1 -1 -1 -2 -2 -2 -2 -2 -1 -0 0 1 1 1 1 -1 -2 -3 -4 -4 -4 -5 -4 -5 -5 -5 -5 -5 -5 -5 -6 -7 -8 -8 -9
-1 -2 -3 -3 -3 -3 -4 -4 -3 -3 -3 -3 -3 -3 -2 -3 -2 -2 -2 -2 -1 -0 -2 -3 -4 -5 -5 -5 -5 -5 -6 -5 -5 -5 -5 -5 -5 -5 -6 -7 -8 -8 -9
-4 -4 -5 -5 -6 -6 -6 -6 -7 -6 -6 -6 -6 -6 -5 -5 -4 -4 -4 -3 -2 -2 -3 -3 -4 -5 -5 -5 -5 -6 -6 -5 -4 -5 -5 -5 -5 -5 -6 -7 -7 -8 -8
-5 -6 -6 -7 -7 -7 -8 -8 -8 -8 -8 -8 -8 -8 -7 -7 -7 -6 -5 -5 -4 -3 -2 -3 -3 -4 -5 -5 -6 -5 -6 -5 -5 -5 -5 -5 -5 -5 -6 -7 -7 -8 -9
-7 -8 -8 -8 -9 -9 -9 -9 -10 -9 -9 -9 -9 -10 -10 -10 -9 -8 -7 -6 -5 -4 -3 -3 -4 -4 -4 -4 -5 -5 -5 -5 -4 -4 -5 -5 -5 -5 -6 -6 -7 -8 -9
-9 -9 -10 -10 -10 -11 -11 -12 -11 -12 -11 -11 -11 -12 -12 -12 -11 -11 -11 -11 -10 -7 -4 -4 -3 -3 -4 -4 -4 -5 -6 -6 -5 -5 -5 -5 -5 -5 -5 -6 -7 -8 -8
-11 -11 -11 -11 -12 -13 -13 -13 -13 -13 -14 -14 -14 -14 -14 -14 -13 -13 -12 -12 -12 -11 -11 -4 -3 -3 -4 -4 -3 -5 -6 -6 -6 -6 -5 -5 -5 -5 -5 -6 -6 -7 -8
-12 -12 -12 -13 -14 -14 -15 -15 -15 -15 -16 -16 -16 -15 -15 -15 -14 -14 -14 -14 -14 -13 -12 -11 -4 -3 -3 -3 -3 -4 -5 -6 -6 -6 -5 -5 -5 -5 -5 -6 -7 -7 -8
-13 -14 -14 -15 -15 -16 -16 -16 -17 -17 -17 -17 -17 -17 -17 -16 -16 -15 -16 -15 -15 -14 -13 -11 -12 -9 -5 -4 -4 -4 -4 -5 -5 -5 -5 -5 -5 -5 -5 -6 -6 -7 -8
-14 -15 -15 -16 -17 -17 -17 -17 -18 -18 -18 -19 -18 -18 -18 -18 -17 -18 -17 -17 -16 -16 -14 -13 -12 -12 -10 -8 -6 -5 -5 -5 -5 -5 -5 -4 -4 -5 -5 -6 -6 -7 -7
-15 -16 -16 -17 -18 -18 -18 -18 -19 -19 -19 -19 -19 -20 -19 -19 -19 -19 -19 -18 -18 -17 -15 -14 -13 -12 -11 -10 -8 -7 -5 -5 -5 -5 -5 -5 -5 -5 -5 -6 -6 -7 -8
-16 -16 -17 -18 -18 -19 -19 -19 -19 -19 -20 -20 -20 -20 -20 -20 -20 -20 -19 -19 -19 -17 -16 -15 -14 -13 -11 -11 -10 -9 -8 -6 -6 -5 -5 -5 -5 -5 -6 -6 -7 -7 -8

GFSGL_925_temp_027.txt.gz
Temp
13 14 14 13 12 11 10 9 9 10 9 8 9 7 7 7 6 7 7 6 6 5 5 5 4 4 3 3 2 2 2 2 2 3 1 -1 -2 -2 -2 -3 -3 -4 -3
14 14 12 12 10 10 9 10 10 10 8 9 8 8 7 7 7 6 6 6 5 4 5 4 4 3 3 3 2 2 2 1 1 2 1 -1 -2 -2 -3 -4 -4 -4 -4
13 12 10 9 8 8 8 8 8 8 8 8 8 7 7 6 6 6 5 5 5 5 5 4 4 3 3 3 2 2 1 0 -0 -0 -0 -1 -2 -3 -3 -3 -4 -4 -4
12 10 9 9 8 7 8 7 7 7 8 8 7 6 6 6 5 4 3 4 4 5 5 4 4 3 3 3 2 1 1 -0 -0 -1 -1 -1 -2 -3 -4 -4 -4 -4 -4
10 9 9 8 8 7 7 7 7 8 8 8 7 6 5 4 4 4 3 3 4 4 4 5 4 4 4 3 1 1 0 -0 -1 -1 -1 -2 -2 -2 -3 -4 -4 -4 -4
9 9 8 7 7 7 7 7 7 7 7 6 5 5 4 3 4 3 3 3 4 4 3 3 4 4 3 2 2 1 0 -0 -1 -1 -2 -2 -2 -3 -4 -5 -5 -4 -4
8 8 7 7 7 7 7 7 6 6 5 4 4 3 2 3 4 2 3 3 3 3 3 3 2 2 3 1 1 0 -1 -1 -2 -2 -3 -3 -3 -4 -5 -5 -4 -5 -4
6 6 6 6 6 5 5 4 4 4 4 3 2 2 3 3 2 1 2 3 2 2 2 2 2 1 1 1 0 -1 -1 -2 -3 -4 -4 -4 -4 -5 -5 -5 -6 -5 -5
5 4 4 4 4 4 3 3 3 3 2 2 2 3 2 2 2 2 2 2 1 2 2 2 1 1 1 1 -1 -2 -2 -2 -4 -4 -4 -4 -5 -5 -6 -5 -5 -5 -5
4 4 4 3 3 3 3 3 3 3 3 3 3 2 2 1 2 2 2 1 1 1 2 2 2 1 1 1 -1 -1 -2 -2 -3 -4 -4 -5 -5 -5 -6 -6 -5 -5 -5
3 4 4 4 3 3 3 3 3 2 2 1 1 2 1 1 2 2 2 1 1 0 -0 0 1 2 1 0 -0 -1 -1 -2 -3 -4 -4 -4 -4 -5 -5 -5 -5 -6 -6
3 2 2 2 2 2 2 2 1 1 1 0 0 0 0 1 2 2 1 1 1 0 0 -0 0 1 1 0 -1 -1 -1 -2 -4 -4 -4 -4 -4 -4 -4 -5 -5 -6 -6
1 1 1 1 1 1 0 0 0 0 -0 -0 -0 -0 -0 -1 -1 -1 0 0 0 0 1 1 1 0 0 -0 -0 -1 -2 -4 -4 -4 -4 -4 -4 -4 -5 -6 -6 -6 -6
-0 -1 -1 -1 -1 -1 -1 -1 -1 -1 -2 -2 -2 -2 -2 -2 -2 -2 -2 -2 -2 -2 -2 -1 0 0 -0 -0 -2 -2 -3 -4 -4 -4 -4 -4 -4 -6 -6 -5 -6 -6 -7
-2 -2 -2 -3 -2 -2 -3 -3 -3 -3 -4 -4 -3 -4 -4 -4 -5 -6 -5 -5 -4 -4 -3 -3 -3 -3 -3 -3 -3 -3 -4 -4 -5 -5 -5 -5 -5 -5 -5 -5 -6 -6 -6
-3 -3 -4 -4 -4 -4 -4 -4 -6 -6 -6 -6 -6 -7 -7 -7 -8 -8 -7 -7 -6 -5 -5 -4 -3 -2 -3 -3 -3 -4 -4 -4 -4 -5 -5 -5 -5 -5 -5 -5 -6 -6 -6
-5 -5 -5 -6 -6 -6 -6 -6 -6 -6 -8 -8 -8 -8 -8 -9 -9 -9 -8 -9 -6 -5 -4 -3 -3 -2 -2 -3 -4 -4 -4 -4 -5 -5 -5 -5 -5 -5 -5 -5 -5 -6 -6
-7 -7 -7 -7 -7 -8 -8 -8 -8 -8 -8 -8 -9 -10 -11 -11 -11 -10 -10 -9 -9 -8 -7 -6 -4 -3 -3 -3 -3 -4 -4 -4 -5 -5 -6 -5 -5 -5 -5 -5 -5 -6 -6
-8 -8 -9 -9 -9 -10 -10 -10 -9 -10 -10 -10 -10 -10 -12 -13 -12 -12 -12 -11 -11 -10 -10 -9 -9 -9 -4 -3 -3 -4 -4 -4 -5 -5 -6 -6 -6 -6 -5 -5 -5 -6 -7
-9 -10 -10 -10 -10 -11 -11 -11 -11 -11 -11 -12 -12 -12 -13 -14 -13 -12 -12 -12 -12 -12 -12 -11 -11 -10 -10 -4 -3 -4 -4 -5 -5 -5 -6 -6 -6 -6 -5 -5 -6 -6 -7
-11 -11 -12 -12 -12 -12 -13 -13 -13 -13 -13 -13 -13 -14 -16 -15 -14 -14 -13 -14 -14 -13 -14 -13 -13 -12 -10 -7 -3 -4 -4 -5 -5 -5 -6 -6 -6 -7 -6 -5 -5 -6 -6
-12 -13 -13 -13 -13 -14 -15 -15 -15 -15 -15 -15 -15 -15 -17 -15 -15 -15 -15 -15 -16 -15 -15 -15 -14 -14 -12 -11 -9 -4 -5 -5 -5 -6 -6 -6 -7 -7 -6 -6 -6 -6 -7
-13 -14 -14 -15 -15 -16 -16 -17 -17 -17 -17 -17 -17 -17 -17 -17 -17 -17 -17 -17 -17 -17 -16 -16 -16 -15 -14 -12 -11 -9 -5 -5 -5 -5 -6 -6 -7 -7 -7 -6 -6 -7 -7
-14 -15 -16 -16 -17 -17 -18 -18 -18 -18 -19 -18 -18 -19 -18 -18 -19 -18 -18 -18 -19 -18 -18 -17 -17 -16 -14 -13 -11 -11 -9 -6 -5 -5 -6 -6 -7 -7 -6 -6 -6 -7 -7
-15 -16 -17 -18 -18 -19 -19 -19 -19 -20 -20 -20 -19 -20 -20 -20 -20 -19 -19 -20 -20 -19 -18 -18 -17 -16 -14 -13 -12 -11 -10 -8 -6 -5 -5 -6 -6 -6 -6 -6 -6 -7 -7
-16 -16 -17 -18 -19 -20 -20 -20 -20 -21 -21 -21 -21 -21 -21 -21 -21 -21 -21 -20 -20 -19 -19 -18 -17 -15 -14 -13 -12 -11 -10 -10 -8 -7 -6 -6 -6 -6 -6 -7 -7 -7 -8

GFSGL_925_temp_033.txt.gz
Temp
22 21 19 18 18 16 14 12 11 10 10 11 9 8 7 7 6 6 6 7 8 8 7 6 7 8 8 8 8 8 8 8 8 8 8 7 7 6 5 4 3 2 2
22 21 19 17 16 15 12 11 11 11 11 10 10 8 6 6 6 6 6 7 8 6 6 5 6 8 8 8 7 7 7 7 7 7 7 7 6 6 5 4 3 2 2
22 21 20 15 14 13 12 12 11 10 10 10 8 6 5 6 5 6 6 7 5 5 5 5 7 8 8 7 7 7 7 7 7 7 6 6 6 5 5 4 3 3 2
20 19 18 16 14 13 12 11 9 9 8 7 5 5 6 5 6 6 6 4 4 5 4 6 6 7 7 7 7 7 6 6 6 6 6 6 6 5 5 4 3 3 2
18 18 16 15 14 13 12 11 9 8 7 6 5 5 6 6 6 5 4 4 5 3 4 6 6 6 6 6 6 6 6 6 6 6 6 6 6 5 5 4 3 3 2
16 16 14 14 13 13 12 10 9 8 7 6 5 6 6 5 5 4 4 4 3 3 3 4 5 5 5 5 6 6 5 5 5 6 5 5 5 5 4 3 3 2 2
15 14 13 12 11 10 10 9 8 7 6 5 5 5 5 4 4 4 3 3 3 2 2 2 3 5 6 6 6 6 6 5 4 3 4 4 4 4 3 2 2 1 1
13 12 12 11 10 10 9 8 6 5 5 5 5 5 6 5 4 4 4 3 2 2 2 4 5 5 5 5 5 5 5 5 3 2 2 3 3 3 2 2 1 0 -0
12 11 11 10 10 9 8 7 7 7 7 6 6 5 5 4 3 3 2 2 3 3 4 4 4 4 4 4 4 3 4 5 4 3 2 2 1 1 0 0 -1 -1 -1
11 10 10 9 9 8 6 6 5 5 5 5 3 4 3 3 3 3 1 2 2 2 2 3 3 3 3 3 3 2 2 3 4 3 1 1 0 -0 -1 -2 -2 -2 -1
10 9 8 7 6 5 5 4 4 4 4 4 4 5 4 4 4 2 1 -0 -2 -2 -2 -1 -0 0 -0 -1 -1 -1 1 1 2 2 0 -0 0 -0 -1 -2 -3 -3 -2
7 7 6 5 5 6 6 6 6 6 5 5 4 4 4 3 2 0 -1 -2 -3 -3 -3 -3 -2 -3 -3 -3 -2 -2 -2 -1 -0 -0 0 -0 1 1 1 0 -1 -2 -2
7 7 6 6 6 6 6 6 6 5 4 4 3 3 3 2 1 -0 -3 -4 -5 -5 -4 -4 -5 -5 -4 -4 -3 -3 -3 -2 -2 -1 -1 -1 -0 1 1 -0 0 -0 -0
6 6 5 5 5 5 5 4 4 2 2 2 1 1 0 -1 -1 -4 -6 -6 -5 -5 -6 -6 -6 -5 -3 -2 -1 -1 -1 -2 -2 -2 -1 -1 -0 0 -1 -1 -1 -1 -1
5 4 4 3 4 3 2 1 0 -3 -3 -2 -2 -3 -4 -4 -5 -8 -8 -8 -7 -8 -8 -7 -5 -3 -4 -3 -3 -2 -2 -1 -1 -2 -2 -1 -1 -1 -2 -2 -2 -2 -3
4 3 2 2 2 2 2 -1 -3 -3 -4 -5 -6 -7 -7 -7 -9 -10 -9 -9 -9 -8 -7 -5 -5 -5 -6 -6 -5 -5 -4 -3 -4 -2 -2 -2 -2 -2 -2 -3 -3 -3 -3
2 1 -1 1 1 0 -0 -0 0 -5 -4 -5 -6 -7 -9 -10 -10 -10 -9 -9 -9 -7 -6 -5 -6 -7 -7 -7 -7 -7 -6 -6 -5 -5 -2 -2 -2 -2 -2 -3 -3 -3 -3
-1 -1 0 -0 -1 -1 -2 -2 -2 -3 -3 -3 -6 -6 -8 -9 -10 -10 -9 -9 -7 -7 -7 -7 -7 -8 -8 -8 -9 -8 -8 -8 -7 -6 -2 -2 -2 -2 -2 -3 -3 -3 -3
-1 -2 -2 -3 -4 -4 -4 -4 -4 -4 -4 -5 -5 -5 -7 -9 -10 -9 -9 -8 -8 -8 -8 -9 -9 -9 -10 -10 -10 -10 -9 -9 -9 -7 -6 -2 -2 -2 -2 -3 -2 -3 -3
-6 -6 -4 -4 -5 -5 -5 -5 -5 -5 -6 -6 -6 -7 -8 -11 -10 -8 -9 -9 -9 -10 -10 -10 -10 -11 -11 -11 -11 -11 -10 -10 -9 -8 -8 -3 -3 -3 -3 -3 -3 -3 -3
-4 -6 -7 -6 -6 -6 -7 -7 -7 -7 -7 -7 -8 -9 -11 -12 -11 -9 -10 -10 -10 -11 -11 -12 -12 -12 -12 -12 -12 -12 -11 -11 -10 -10 -10 -3 -3 -3 -3 -3 -3 -3 -3
-6 -7 -7 -8 -8 -8 -9 -9 -9 -9 -9 -9 -9 -9 -11 -11 -10 -11 -11 -11 -12 -12 -12 -13 -13 -13 -13 -13 -13 -13 -13 -12 -11 -11 -11 -10 -4 -4 -3 -3 -3 -4 -4
-9 -9 -9 -9 -9 -10 -10 -9 -10 -10 -10 -11 -11 -11 -11 -11 -12 -12 -12 -13 -13 -14 -14 -14 -14 -15 -15 -14 -14 -14 -13 -13 -12 -13 -12 -10 -9 -4 -3 -3 -3 -4 -4
-10 -10 -10 -10 -10 -12 -11 -11 -11 -11 -12 -11 -12 -12 -12 -12 -13 -13 -13 -14 -14 -15 -15 -15 -16 -16 -15 -15 -15 -14 -14 -13 -14 -13 -12 -11 -10 -4 -4 -4 -4 -4 -4
-11 -11 -11 -11 -11 -11 -12 -11 -12 -12 -12 -12 -13 -13 -13 -13 -14 -14 -14 -15 -16 -16 -16 -17 -16 -16 -16 -16 -15 -14 -14 -14 -13 -13 -12 -11 -9 -4 -4 -4 -4 -4 -4
-11 -11 -12 -12 -12 -12 -12 -13 -13 -13 -13 -14 -14 -14 -14 -15 -15 -15 -16 -16 -16 -18 -18 -17 -17 -17 -16 -15 -15 -14 -14 -14 -13 -13 -12 -11 -8 -6 -4 -4 -4 -4 -4

GFSGL_925_temp_036.txt.gz
Temp
23 22 21 20 19 17 16 16 14 13 12 11 10 10 9 8 8 8 8 7 6 7 7 7 7 7 7 8 8 8 8 8 7 7 8 7 7 7 7 6 5 4 3
24 21 20 20 18 18 16 15 14 13 11 11 10 10 9 7 7 7 7 6 6 6 6 7 6 6 6 7 8 8 8 7 7 6 7 7 7 7 6 6 5 4 4
24 22 21 19 17 15 14 13 12 12 11 10 10 9 8 6 6 7 6 6 5 5 6 6 5 5 6 6 7 7 7 7 7 6 6 6 6 6 6 6 5 4 4
22 20 17 14 14 14 13 12 11 11 10 10 10 9 7 6 6 6 5 5 5 5 6 5 4 5 6 6 7 7 7 6 6 5 5 5 6 6 6 6 5 4 4
19 17 15 14 14 13 12 11 11 10 9 8 7 7 6 6 5 5 5 5 5 6 5 4 4 5 5 5 6 6 5 5 5 5 5 5 5 5 5 6 5 4 3
18 16 15 15 14 13 11 10 9 8 7 6 6 5 5 5 6 6 5 5 5 4 4 3 3 4 4 4 5 5 5 5 4 4 4 4 4 4 5 5 4 3 1
15 14 14 13 12 11 10 9 8 8 7 6 5 5 5 6 5 5 5 4 4 3 3 3 2 2 3 4 5 5 5 5 6 5 4 4 3 4 4 4 3 3 2
14 13 12 11 11 10 9 8 7 6 5 5 5 5 5 5 5 5 4 3 3 3 3 3 3 3 4 4 4 4 3 3 4 4 4 4 3 3 3 3 3 2 2
13 12 11 11 10 9 8 7 6 6 6 6 6 6 6 4 4 4 3 2 2 2 2 3 2 2 1 1 0 -1 -1 0 2 2 3 3 4 3 2 2 1 1 -0
12 11 11 10 9 8 7 6 6 6 6 6 5 5 5 4 3 3 2 1 1 0 0 -0 -0 -0 -1 -1 -2 -3 -3 -2 -2 -1 -1 1 2 2 2 2 0 -0 -1
11 10 10 7 6 6 6 6 5 5 4 4 4 4 5 3 2 1 1 -0 -2 -2 -3 -3 -3 -3 -3 -3 -3 -4 -4 -3 -3 -3 -3 -2 0 -1 0 1 0 -0 -2
8 8 7 6 6 5 5 5 6 6 5 5 4 4 3 2 1 -0 -1 -2 -3 -4 -5 -5 -5 -5 -5 -4 -4 -3 -3 -3 -4 -4 -3 -2 -1 -1 -1 -2 -1 -1 -1
7 7 7 7 7 7 7 7 6 5 4 3 3 3 2 1 -1 -2 -2 -3 -4 -6 -6 -6 -6 -5 -4 -4 -4 -4 -3 -3 -4 -4 -3 -3 -2 -1 -1 -2 -3 -1 -1
7 7 6 6 6 6 5 5 3 2 2 2 1 0 -0 -2 -3 -4 -5 -6 -7 -7 -8 -7 -6 -6 -4 -5 -5 -5 -5 -5 -5 -4 -4 -3 -2 -2 -2 -2 -2 -3 -2
6 5 4 5 4 3 2 1 -0 -1 -1 -1 -3 -3 -4 -5 -7 -8 -8 -8 -8 -8 -8 -8 -6 -5 -6 -6 -7 -7 -7 -7 -7 -6 -6 -6 -5 -3 -2 -2 -2 -2 -2
5 3 3 3 4 3 0 -1 -2 -2 -3 -3 -4 -5 -6 -7 -8 -8 -9 -9 -8 -8 -8 -7 -6 -6 -7 -7 -8 -8 -8 -8 -8 -8 -8 -7 -6 -4 -2 -2 -2 -3 -3
2 1 1 1 1 1 1 -0 -4 -5 -5 -5 -5 -6 -6 -7 -8 -9 -9 -9 -8 -7 -7 -7 -7 -8 -8 -8 -9 -9 -9 -9 -9 -9 -9 -8 -7 -4 -2 -2 -2 -3 -3
1 1 1 0 -1 -1 -1 -2 -2 -2 -3 -4 -6 -6 -7 -8 -9 -9 -9 -8 -8 -8 -8 -8 -9 -9 -10 -10 -10 -10 -11 -10 -10 -10 -10 -9 -8 -8 -2 -2 -3 -3 -3
-1 -2 -2 -3 -4 -4 -4 -4 -4 -4 -4 -4 -5 -5 -8 -9 -8 -9 -8 -9 -9 -9 -9 -10 -10 -11 -11 -11 -12 -12 -12 -11 -11 -11 -10 -10 -9 -10 -4 -2 -3 -3 -3
-4 -4 -4 -5 -5 -5 -5 -5 -5 -5 -5 -6 -6 -7 -8 -9 -10 -10 -9 -9 -10 -10 -11 -11 -11 -12 -12 -13 -13 -13 -13 -12 -12 -12 -11 -11 -11 -10 -7 -3 -3 -3 -3
-6 -6 -6 -5 -6 -6 -7 -7 -7 -7 -7 -7 -8 -8 -10 -10 -11 -10 -10 -10 -11 -12 -12 -13 -13 -13 -14 -14 -14 -14 -14 -14 -13 -13 -12 -12 -12 -11 -10 -3 -2 -3 -3
-7 -7 -7 -8 -8 -8 -9 -9 -8 -8 -8 -9 -9 -10 -10 -10 -11 -11 -11 -12 -13 -13 -13 -14 -14 -14 -15 -15 -15 -14 -15 -14 -14 -13 -13 -13 -13 -12 -10 -6 -3 -3 -3
-9 -9 -8 -8 -9 -10 -9 -9 -9 -10 -10 -10 -11 -11 -11 -11 -12 -12 -12 -13 -13 -14 -14 -15 -15 -16 -16 -16 -15 -15 -15 -15 -14 -14 -14 -13 -12 -12 -11 -10 -4 -3 -4
-9 -10 -9 -9 -10 -10 -11 -11 -11 -11 -11 -11 -12 -12 -12 -12 -13 -13 -13 -14 -14 -15 -15 -16 -16 -17 -16 -16 -16 -16 -15 -14 -14 -14 -14 -13 -13 -12 -11 -10 -4 -3 -4
-10 -10 -10 -10 -11 -11 -11 -11 -11 -12 -12 -12 -13 -13 -13 -14 -14 -14 -15 -15 -16 -16 -17 -17 -17 -17 -17 -17 -16 -15 -15 -15 -14 -14 -13 -13 -12 -12 -10 -8 -4 -3 -4
-11 -11 -11 -11 -12 -12 -12 -12 -13 -13 -13 -14 -14 -15 -15 -15 -15 -16 -16 -16 -17 -18 -18 -19 -19 -18 -17 -17 -16 -16 -15 -15 -14 -13 -13 -12 -12 -11 -11 -9 -4 -4 -4

GFSGL_925_temp_042.txt.gz
Temp
17 17 17 17 17 16 15 15 15 14 15 15 14 14 13 12 11 11 11 11 10 9 8 8 8 7 6 6 6 6 6 6 5 5 6 6 7 7 7 7 7 7 7
17 17 17 17 17 15 15 15 14 14 14 13 12 12 12 12 11 10 10 9 8 7 7 7 6 5 6 6 6 6 5 5 5 4 5 5 5 6 6 6 6 7 6
18 18 17 18 17 16 16 15 14 13 14 13 12 11 11 11 10 9 8 8 7 8 7 6 5 5 5 5 5 5 5 5 5 4 4 5 5 5 5 5 5 5 3
17 17 18 17 16 16 15 14 14 14 12 12 11 11 11 10 9 9 8 7 7 6 6 6 5 5 5 5 5 4 4 3 4 3 3 3 3 3 3 3 3 3 3
16 16 17 17 15 14 13 13 13 13 12 12 11 11 10 9 9 8 7 6 6 6 5 5 5 5 5 4 3 2 2 2 2 2 2 2 2 2 2 2 2 2 2
16 15 14 13 13 12 12 12 11 11 10 10 9 9 8 8 7 7 6 6 6 5 5 4 4 4 4 2 3 0 1 1 0 -1 -1 -0 -0 1 1 1 1 1 1
13 12 12 11 11 11 11 11 10 9 8 8 8 7 6 6 6 5 5 5 5 4 4 4 3 3 2 2 0 0 1 0 -1 -2 -2 -3 -2 -2 -2 -2 -1 -1 -1
11 11 11 10 9 9 9 8 8 8 9 7 6 6 6 5 5 5 5 4 4 3 3 3 2 1 1 -0 -1 -1 -1 -1 -1 -2 -3 -3 -3 -3 -3 -3 -3 -3 -3
10 9 9 9 8 8 8 8 7 7 6 5 5 5 5 5 5 4 4 3 2 2 1 1 1 0 -1 -2 -2 -3 -4 -4 -4 -4 -4 -4 -4 -3 -3 -4 -4 -4 -3
9 9 9 9 9 8 7 7 7 6 5 5 5 5 4 3 3 3 4 4 2 1 -0 -1 -1 -2 -3 -3 -4 -5 -5 -5 -6 -6 -6 -6 -6 -5 -4 -4 -4 -4 -3
10 9 9 9 8 8 7 6 6 5 4 4 3 3 3 2 2 2 1 2 0 -0 -1 -2 -3 -4 -4 -5 -5 -5 -6 -6 -7 -7 -8 -8 -7 -7 -7 -7 -7 -6 -5
9 9 8 7 7 6 6 5 5 5 3 2 2 -0 -1 -1 -1 -1 -0 -1 -1 -2 -3 -4 -5 -5 -6 -6 -6 -6 -7 -7 -8 -9 -9 -9 -8 -9 -9 -9 -8 -7 -6
8 6 6 6 6 6 5 5 4 4 3 -1 -1 -3 -4 -4 -4 -4 -3 -2 -3 -3 -5 -6 -6 -6 -6 -6 -7 -8 -8 -9 -9 -10 -10 -10 -10 -10 -10 -10 -9 -8 -7
6 5 5 5 4 4 4 4 3 3 1 -1 -3 -5 -5 -5 -5 -5 -4 -5 -5 -6 -6 -6 -7 -7 -8 -8 -8 -9 -9 -10 -10 -11 -11 -11 -10 -11 -11 -10 -10 -8 -8
5 4 3 3 2 1 1 0 1 -0 1 -1 -2 -3 -4 -6 -6 -6 -6 -7 -7 -7 -7 -7 -8 -9 -9 -10 -10 -10 -11 -11 -12 -12 -12 -12 -12 -12 -12 -11 -10 -10 -9
2 1 1 1 -0 -1 -1 -2 -2 -2 -2 -2 -3 -3 -4 -5 -7 -7 -7 -8 -8 -8 -8 -9 -9 -10 -10 -11 -11 -12 -12 -13 -13 -13 -13 -13 -13 -13 -12 -12 -11 -11 -9
1 0 -0 -0 -1 -2 -3 -3 -5 -5 -4 -4 -5 -5 -6 -6 -7 -8 -8 -8 -8 -8 -9 -10 -11 -11 -12 -12 -12 -13 -13 -14 -14 -14 -14 -14 -14 -14 -13 -12 -12 -11 -10
0 -0 -1 -2 -2 -2 -3 -4 -4 -5 -5 -6 -6 -7 -7 -8 -8 -9 -8 -8 -9 -9 -10 -11 -12 -12 -13 -13 -14 -14 -15 -15 -15 -15 -15 -15 -15 -15 -13 -13 -13 -12 -11
-3 -4 -3 -4 -4 -4 -5 -5 -6 -6 -6 -6 -7 -8 -8 -9 -9 -9 -9 -10 -10 -11 -11 -12 -13 -13 -14 -14 -15 -15 -15 -15 -16 -16 -16 -16 -15 -15 -14 -14 -13 -13 -12
-4 -5 -5 -5 -6 -6 -6 -7 -7 -7 -7 -8 -8 -8 -9 -9 -10 -10 -10 -11 -11 -12 -12 -13 -14 -14 -14 -15 -16 -16 -16 -16 -16 -16 -16 -16 -16 -15 -15 -14 -13 -13 -12
-6 -6 -7 -7 -7 -8 -8 -8 -8 -8 -9 -9 -9 -10 -10 -10 -11 -11 -11 -12 -12 -13 -13 -14 -15 -15 -16 -16 -16 -17 -17 -17 -16 -16 -16 -16 -15 -16 -15 -14 -14 -13 -12
-8 -8 -8 -8 -9 -9 -10 -9 -10 -10 -10 -10 -11 -11 -11 -11 -12 -12 -13 -13 -14 -14 -15 -15 -16 -16 -17 -17 -17 -18 -18 -17 -17 -17 -17 -16 -16 -16 -15 -14 -13 -13 -12
-9 -9 -9 -10 -10 -10 -10 -10 -11 -11 -11 -11 -12 -12 -13 -13 -14 -14 -14 -15 -15 -16 -16 -16 -17 -17 -17 -18 -18 -18 -18 -17 -17 -17 -17 -17 -16 -16 -15 -15 -13 -12 -12
-10 -10 -10 -11 -11 -11 -11 -12 -12 -12 -13 -13 -13 -14 -14 -15 -15 -15 -16 -16 -17 -17 -17 -18 -18 -18 -18 -19 -19 -18 -18 -18 -18 -17 -17 -17 -17 -16 -16 -14 -13 -12 -12
-11 -12 -12 -12 -12 -12 -12 -13 -13 -14 -14 -14 -15 -15 -15 -16 -16 -17 -17 -17 -18 -18 -19 -19 -19 -19 -19 -20 -19 -19 -19 -18 -18 -17 -17 -17 -16 -16 -15 -14 -13 -13 -12
-12 -13 -13 -13 -14 -14 -14 -15 -15 -15 -16 -16 -16 -16 -16 -17 -17 -18 -18 -19 -19 -19 -19 -20 -20 -20 -21 -20 -20 -20 -19 -19 -18 -17 -17 -17 -16 -16 -16 -15 -14 -13 -12

GFSGL_925_temp_045.txt.gz
Temp
14 14 14 14 14 14 14 14 14 14 15 15 14 14 14 13 12 12 11 11 10 10 10 10 8 8 7 7 7 6 5 5 4 5 5 6 6 6 6 6 6 6 6
14 14 14 14 14 14 15 14 14 14 15 13 13 13 14 11 12 11 11 10 10 10 9 8 7 7 7 6 5 5 5 5 4 3 4 4 5 5 5 5 5 5 5
15 15 14 14 14 15 16 14 14 14 13 13 15 13 12 13 11 11 9 10 10 9 8 7 6 6 6 5 5 5 5 4 4 3 2 3 3 4 4 4 3 3 3
15 15 15 14 15 15 14 14 13 13 13 13 15 14 11 11 10 9 9 9 8 8 7 7 7 6 5 5 4 4 3 3 3 2 2 2 1 2 2 2 2 2 2
16 15 15 15 15 14 14 14 13 13 12 12 13 12 11 10 9 9 9 8 7 6 6 6 6 4 4 4 4 4 3 2 1 0 0 0 -0 -0 -0 -0 -0 -0 -1
16 15 15 14 14 14 14 13 13 13 12 12 11 10 9 9 10 9 8 7 6 6 5 5 4 3 3 3 2 1 2 0 -0 -1 -2 -2 -2 -3 -3 -3 -3 -3 -2
16 14 14 14 14 13 12 12 12 10 10 10 9 9 9 9 8 8 7 6 6 5 5 3 3 2 2 2 1 1 1 -0 -1 -2 -3 -3 -4 -4 -4 -4 -5 -4 -4
13 13 13 12 12 11 11 10 10 10 9 9 9 8 8 7 7 6 6 5 5 4 3 3 2 2 1 2 2 1 -0 -1 -2 -3 -5 -5 -5 -5 -5 -5 -5 -5 -5
11 11 11 10 9 9 9 9 9 9 8 8 8 7 6 6 5 5 4 4 3 2 2 1 1 0 1 1 -0 -1 -2 -3 -4 -5 -5 -5 -5 -5 -5 -6 -5 -5 -4
10 10 10 10 10 9 9 8 7 8 7 6 5 5 4 4 4 4 4 3 2 1 0 -1 -2 1 0 -2 -3 -4 -5 -5 -6 -6 -6 -5 -6 -6 -6 -6 -6 -8 -7
9 9 9 9 10 9 8 7 6 5 4 3 2 2 2 2 2 2 3 3 2 -0 -1 -1 -2 -3 -4 -4 -5 -6 -6 -7 -7 -7 -8 -8 -8 -8 -9 -9 -9 -9 -9
8 8 8 8 7 7 6 5 4 4 1 -0 -0 -1 -1 -1 -0 0 0 0 -0 -1 -2 -3 -3 -4 -5 -6 -6 -7 -7 -7 -8 -9 -10 -10 -10 -10 -10 -10 -10 -10 -10
7 6 6 6 6 5 5 3 2 1 -1 -2 -3 -4 -4 -4 -3 -2 -1 -1 -1 -2 -3 -5 -6 -6 -6 -7 -7 -8 -8 -9 -10 -11 -11 -11 -11 -11 -11 -11 -11 -11 -10
5 4 4 4 3 3 3 2 2 -0 -1 -2 -4 -5 -6 -5 -4 -4 -4 -4 -4 -5 -6 -6 -7 -7 -7 -8 -8 -9 -10 -11 -11 -12 -12 -12 -12 -12 -12 -12 -12 -11 -11
2 2 2 2 2 1 0 0 0 -0 1 -1 -3 -3 -5 -6 -6 -6 -5 -6 -6 -7 -7 -8 -8 -8 -9 -10 -10 -11 -11 -12 -12 -13 -13 -13 -13 -13 -13 -13 -13 -12 -12
0 -0 -1 -1 -2 -3 -3 -4 -3 -2 -2 -2 -3 -3 -5 -6 -7 -8 -8 -8 -8 -7 -8 -9 -10 -10 -10 -11 -12 -12 -13 -13 -13 -14 -14 -14 -15 -15 -15 -14 -13 -13 -13
-0 -2 -2 -2 -3 -4 -4 -5 -6 -6 -4 -4 -4 -5 -5 -7 -8 -8 -8 -8 -8 -8 -9 -10 -11 -11 -12 -12 -12 -13 -14 -14 -15 -15 -15 -15 -15 -16 -15 -15 -14 -14 -13
-2 -3 -3 -3 -3 -3 -3 -4 -5 -5 -6 -7 -7 -7 -8 -8 -8 -8 -8 -8 -9 -10 -10 -11 -12 -12 -13 -13 -14 -14 -15 -15 -15 -16 -16 -16 -16 -16 -16 -15 -15 -15 -14
-4 -4 -4 -4 -4 -5 -5 -5 -5 -5 -6 -6 -7 -8 -8 -9 -9 -10 -10 -10 -10 -11 -11 -12 -13 -13 -14 -15 -15 -15 -16 -16 -16 -16 -16 -16 -16 -16 -17 -16 -16 -15 -14
-5 -5 -5 -5 -6 -6 -6 -7 -7 -7 -7 -7 -8 -9 -9 -10 -10 -11 -11 -11 -11 -12 -13 -13 -14 -14 -15 -15 -16 -16 -17 -17 -17 -17 -17 -17 -17 -17 -16 -16 -16 -15 -14
-6 -7 -7 -7 -8 -8 -8 -8 -8 -9 -9 -9 -10 -10 -10 -11 -11 -11 -12 -12 -13 -13 -14 -14 -15 -16 -16 -16 -17 -17 -18 -18 -17 -17 -17 -17 -17 -17 -17 -16 -16 -15 -14
-8 -8 -9 -9 -9 -9 -10 -10 -10 -10 -10 -11 -11 -11 -12 -12 -12 -13 -13 -14 -14 -15 -15 -16 -16 -17 -17 -17 -18 -18 -19 -18 -18 -18 -18 -18 -18 -17 -17 -17 -16 -16 -14
-9 -10 -10 -10 -10 -11 -11 -11 -11 -11 -12 -12 -13 -13 -14 -14 -14 -15 -15 -15 -16 -16 -17 -17 -18 -18 -18 -18 -18 -19 -19 -19 -19 -19 -18 -18 -18 -18 -18 -17 -17 -16 -14
-11 -11 -11 -12 -12 -12 -12 -13 -13 -13 -13 -14 -14 -14 -15 -15 -16 -16 -16 -17 -17 -18 -18 -19 -19 -19 -19 -19 -20 -20 -19 -19 -20 -19 -18 -19 -18 -18 -18 -18 -17 -15 -14
-12 -12 -13 -13 -13 -14 -14 -14 -15 -15 -15 -16 -16 -16 -16 -17 -17 -17 -18 -18 -19 -19 -20 -20 -20 -20 -21 -21 -21 -20 -20 -20 -19 -19 -19 -19 -18 -18 -18 -17 -17 -16 -15
-13 -14 -14 -14 -15 -15 -15 -16 -16 -16 -16 -16 -16 -17 -18 -18 -18 -19 -19 -20 -20 -20 -21 -21 -22 -22 -22 -22 -21 -21 -21 -20 -20 -19 -19 -19 -18 -18 -18 -18 -17 -17 -16

GFSGL_925_temp_048.txt.gz
Temp
12 12 12 12 12 12 13 13 14 15 15 15 15 15 15 14 13 13 12 12 11 10 10 10 9 9 10 8 7 7 6 6 4 5 5 5 5 6 6 6 5 5 5
12 12 12 13 12 12 12 13 17 13 13 14 14 15 15 12 12 12 12 12 11 10 10 9 8 8 8 7 7 6 6 5 4 4 4 4 5 5 5 4 4 4 3
13 13 12 12 13 13 13 14 14 14 14 14 13 14 13 13 12 12 12 11 11 10 8 8 8 7 7 6 6 5 5 5 4 3 2 2 3 3 3 3 2 2 2
13 13 13 13 13 13 13 14 14 14 13 13 12 12 12 12 13 12 12 10 9 8 8 8 8 7 7 6 5 4 4 4 3 2 1 1 1 1 1 0 -0 1 -0
14 13 13 13 13 13 14 14 13 13 13 12 12 12 12 12 12 11 11 9 8 8 7 7 6 6 6 5 5 4 3 3 2 1 0 -0 -1 -1 -2 -3 -3 -3 -3
14 14 14 14 13 13 13 13 13 12 12 12 12 12 12 11 11 10 10 9 8 7 6 5 5 4 4 3 3 3 2 2 1 -0 -1 -2 -2 -3 -4 -4 -4 -5 -3
15 14 14 14 13 13 13 13 13 12 12 12 12 12 11 10 10 9 8 8 7 6 5 4 3 3 3 2 1 1 1 0 -1 -1 -2 -3 -4 -4 -5 -5 -6 -6 -6
15 14 14 14 13 13 12 12 12 12 11 11 10 10 9 9 8 7 7 6 6 5 4 3 3 2 1 1 0 0 -1 -1 -2 -3 -4 -4 -5 -5 -5 -6 -6 -6 -6
13 13 13 12 11 11 11 11 10 10 8 8 8 7 8 7 6 6 6 5 4 3 2 2 1 -0 -1 0 -0 0 -1 -2 -4 -5 -5 -5 -5 -5 -6 -7 -6 -7 -7
12 11 11 12 11 10 9 8 7 7 6 6 5 5 5 4 4 4 5 4 2 1 -0 -1 -1 -1 -1 -1 1 -1 -3 -5 -5 -6 -5 -5 -6 -6 -7 -7 -8 -8 -8
10 10 10 10 10 8 7 6 5 5 4 3 2 2 2 2 3 3 3 3 2 0 -1 -2 -3 -3 -3 -2 -2 -4 -5 -6 -6 -7 -7 -7 -7 -8 -8 -9 -9 -9 -9
9 8 7 7 6 6 5 3 3 3 1 0 0 -1 -1 0 1 1 1 2 0 1 -1 -3 -3 -3 -4 -5 -6 -6 -7 -7 -7 -8 -9 -9 -10 -10 -10 -10 -10 -10 -10
6 5 5 5 4 3 3 2 1 1 -1 -2 -2 -3 -4 -3 -2 -1 -1 -1 -2 -1 -2 -3 -4 -5 -6 -6 -7 -7 -8 -8 -9 -10 -11 -11 -11 -12 -11 -12 -12 -12 -11
4 3 3 3 2 2 2 1 -0 -1 -2 -2 -3 -4 -5 -5 -4 -4 -3 -3 -3 -3 -4 -6 -6 -6 -7 -7 -8 -9 -9 -10 -11 -12 -12 -12 -13 -13 -13 -13 -13 -12 -12
3 2 1 2 2 1 -0 -1 -1 -1 -0 -1 -2 -4 -5 -6 -5 -5 -4 -5 -5 -6 -6 -7 -8 -8 -9 -9 -10 -10 -11 -12 -12 -13 -13 -13 -14 -14 -14 -14 -13 -13 -13
-0 -1 -1 -1 -1 -2 -3 -4 -3 -2 -1 -2 -3 -3 -5 -6 -7 -7 -7 -7 -7 -7 -8 -8 -9 -10 -10 -11 -11 -12 -12 -13 -13 -14 -14 -15 -15 -15 -15 -15 -15 -14 -14
-2 -2 -3 -3 -4 -4 -5 -5 -6 -6 -5 -5 -5 -6 -7 -7 -7 -8 -7 -8 -8 -8 -9 -10 -10 -11 -11 -12 -12 -13 -13 -14 -15 -15 -16 -16 -16 -16 -16 -16 -15 -15 -15
-4 -4 -4 -5 -5 -5 -5 -6 -6 -6 -6 -7 -7 -7 -7 -8 -8 -8 -8 -8 -9 -9 -10 -11 -11 -12 -13 -13 -14 -14 -15 -15 -16 -16 -16 -16 -16 -17 -17 -17 -16 -16 -16
-4 -5 -5 -5 -5 -5 -5 -5 -5 -6 -6 -7 -8 -8 -8 -9 -9 -9 -9 -10 -10 -10 -11 -12 -12 -13 -14 -14 -15 -15 -16 -16 -16 -17 -17 -17 -17 -17 -18 -17 -17 -16 -16
-5 -5 -5 -6 -6 -6 -6 -7 -7 -7 -7 -7 -8 -9 -10 -10 -10 -11 -11 -11 -11 -12 -12 -13 -14 -14 -15 -15 -16 -16 -17 -17 -17 -18 -18 -17 -17 -18 -18 -18 -17 -17 -16
-7 -7 -7 -8 -8 -8 -8 -8 -9 -9 -9 -10 -10 -11 -11 -11 -11 -12 -12 -13 -13 -14 -14 -15 -15 -16 -16 -17 -17 -18 -18 -18 -18 -18 -18 -18 -18 -18 -18 -18 -18 -17 -17
-9 -9 -9 -9 -10 -10 -10 -10 -10 -11 -11 -11 -12 -12 -12 -13 -13 -14 -14 -15 -15 -15 -16 -16 -17 -17 -18 -18 -19 -19 -19 -19 -19 -19 -19 -19 -19 -19 -18 -18 -18 -18 -17
-10 -10 -11 -11 -11 -11 -12 -12 -12 -12 -13 -13 -14 -14 -14 -15 -15 -15 -16 -16 -17 -17 -17 -18 -19 -19 -19 -19 -19 -20 -20 -20 -20 -20 -20 -20 -19 -19 -19 -19 -18 -18 -18
-11 -12 -12 -12 -13 -13 -13 -14 -14 -14 -15 -15 -15 -15 -16 -16 -17 -17 -17 -18 -18 -19 -19 -20 -20 -20 -20 -21 -21 -21 -21 -21 -21 -21 -20 -20 -20 -20 -19 -19 -19 -18 -17
-13 -13 -13 -14 -14 -15 -15 -15 -16 -16 -16 -16 -16 -17 -17 -18 -18 -18 -19 -19 -20 -20 -20 -21 -21 -22 -22 -21 -22 -22 -22 -22 -22 -21 -21 -20 -20 -20 -19 -19 -19 -18 -18
-14 -14 -15 -15 -16 -16 -16 -17 -17 -17 -17 -18 -18 -18 -19 -19 -19 -20 -20 -20 -21 -21 -21 -22 -22 -22 -22 -22 -22 -22 -22 -22 -22 -21 -21 -20 -20 -20 -19 -19 -19 -19 -18

GFSGL_925_temp_051.txt.gz
Temp
12 12 12 11 11 11 11 13 14 14 14 15 15 14 14 14 15 14 14 14 13 12 12 11 11 10 11 9 8 9 9 9 7 6 7 7 7 6 6 6 6 5 5
12 12 11 11 11 11 11 11 11 12 13 13 12 12 12 13 13 14 14 13 12 12 12 11 11 10 9 8 8 8 8 7 6 5 5 5 5 5 5 5 4 4 3
12 12 11 11 11 11 11 12 12 13 12 12 12 12 13 13 13 13 12 12 11 13 11 10 10 9 8 7 7 7 6 5 5 5 3 4 3 3 3 3 2 2 2
13 12 12 12 12 12 12 12 12 12 13 12 13 13 13 13 12 11 11 11 11 11 10 10 9 8 7 7 6 6 5 4 4 3 2 2 2 2 1 2 2 1 1
13 13 13 13 12 12 12 12 12 12 13 13 13 12 13 12 11 12 11 11 11 10 9 9 8 7 7 7 6 5 4 3 2 2 1 0 2 1 2 1 -0 -0 -0
14 14 14 13 13 12 13 13 13 13 12 12 12 13 12 12 12 12 12 11 10 9 8 7 6 6 6 5 5 4 4 3 2 1 1 1 2 -0 -1 -1 -2 -1 1
14 14 14 14 13 13 13 13 13 13 13 12 12 12 12 12 12 12 11 10 9 7 7 6 5 4 4 3 3 2 2 1 1 1 0 -0 -1 -2 -3 -3 -2 -2 -2
15 15 14 14 14 14 13 13 13 13 12 12 12 12 12 11 11 10 9 8 7 6 5 5 5 3 2 2 1 1 -0 -1 -1 -2 -3 -3 -4 -4 -4 -4 -4 -4 -3
15 15 14 14 14 13 13 12 12 12 12 11 10 10 9 9 8 7 7 6 5 3 3 3 3 1 0 -0 -0 -1 -2 -3 -4 -4 -4 -4 -4 -5 -5 -5 -4 -4 -4
15 14 13 12 11 12 12 11 10 9 8 7 6 6 6 6 5 5 6 5 3 1 0 -0 -0 -0 -1 -1 -2 -2 -3 -4 -5 -5 -5 -6 -6 -6 -6 -6 -6 -6 -5
11 11 11 11 11 11 9 8 7 6 4 3 3 2 3 3 3 4 4 3 1 -2 -2 -3 -3 -2 -3 -3 -2 -3 -4 -5 -6 -6 -7 -7 -7 -7 -8 -8 -8 -7 -7
10 9 9 9 8 7 7 4 3 2 1 -0 -0 -1 -1 -0 0 2 2 2 0 -0 -2 -3 -4 -6 -5 -6 -5 -6 -6 -6 -7 -8 -8 -7 -8 -8 -8 -9 -9 -9 -9
6 5 5 4 4 3 3 1 1 1 -0 -2 -3 -4 -5 -4 -3 -1 -0 -1 -1 -2 -3 -4 -6 -6 -6 -6 -6 -7 -7 -8 -8 -8 -8 -8 -9 -10 -10 -10 -10 -10 -10
3 2 2 1 1 1 1 1 0 -0 -1 -2 -3 -4 -5 -5 -4 -3 -3 -3 -3 -4 -6 -7 -6 -7 -7 -8 -8 -8 -9 -9 -10 -10 -10 -10 -11 -11 -11 -11 -11 -11 -10
1 0 -0 -1 -1 -1 -1 -1 -1 -1 -0 -1 -3 -3 -5 -6 -6 -4 -4 -4 -5 -5 -6 -7 -7 -7 -8 -8 -9 -9 -10 -10 -10 -11 -12 -12 -12 -12 -12 -12 -12 -11 -11
1 -0 -1 -2 -2 -3 -4 -5 -4 -2 -2 -2 -3 -3 -6 -7 -7 -7 -7 -7 -7 -7 -7 -8 -9 -9 -9 -9 -9 -10 -11 -12 -12 -13 -13 -13 -13 -13 -13 -13 -13 -12 -12
-1 -2 -3 -3 -3 -4 -4 -5 -5 -6 -6 -5 -5 -6 -6 -7 -7 -7 -7 -8 -8 -8 -8 -9 -9 -10 -10 -11 -11 -12 -12 -13 -14 -14 -14 -14 -14 -14 -14 -14 -13 -13 -12
-4 -4 -4 -5 -5 -5 -5 -5 -5 -5 -5 -6 -7 -7 -7 -7 -7 -7 -8 -8 -9 -9 -9 -10 -10 -11 -11 -12 -12 -13 -13 -14 -15 -15 -15 -15 -15 -15 -15 -14 -14 -13 -13
-4 -5 -5 -5 -5 -5 -5 -5 -5 -6 -6 -7 -8 -8 -8 -9 -9 -9 -9 -9 -9 -9 -10 -10 -11 -12 -13 -13 -14 -15 -16 -16 -16 -16 -16 -16 -16 -16 -15 -15 -15 -15 -14
-6 -6 -6 -6 -6 -6 -6 -6 -6 -6 -7 -8 -8 -9 -10 -9 -10 -11 -11 -11 -11 -11 -12 -12 -13 -14 -15 -15 -16 -16 -16 -16 -16 -16 -16 -17 -17 -16 -16 -16 -15 -15 -14
-8 -8 -8 -8 -8 -8 -8 -8 -9 -9 -9 -10 -11 -11 -11 -11 -11 -12 -13 -13 -13 -14 -14 -15 -15 -16 -16 -17 -17 -17 -18 -18 -18 -18 -18 -18 -17 -17 -17 -16 -16 -15 -15
-9 -9 -9 -10 -10 -9 -9 -10 -10 -10 -10 -11 -12 -13 -13 -13 -13 -14 -15 -15 -16 -16 -17 -17 -17 -18 -18 -19 -19 -19 -19 -20 -19 -19 -19 -18 -18 -18 -18 -17 -16 -16 -16
-10 -10 -10 -11 -11 -11 -11 -12 -12 -12 -13 -13 -14 -14 -15 -15 -16 -16 -17 -18 -18 -18 -19 -19 -20 -20 -20 -21 -21 -21 -21 -21 -20 -20 -20 -19 -19 -19 -18 -18 -17 -16 -16
-12 -12 -12 -13 -13 -13 -14 -14 -14 -15 -15 -15 -16 -16 -17 -17 -18 -18 -18 -19 -19 -20 -19 -20 -20 -21 -21 -21 -22 -22 -22 -22 -22 -21 -21 -21 -21 -20 -19 -18 -18 -17 -17
-14 -14 -15 -15 -15 -15 -16 -16 -17 -17 -17 -17 -18 -18 -18 -19 -19 -20 -20 -19 -20 -20 -20 -21 -21 -22 -22 -22 -22 -22 -23 -23 -23 -23 -23 -22 -21 -20 -20 -19 -18 -18 -17
-16 -16 -16 -16 -17 -17 -17 -18 -18 -19 -19 -19 -19 -20 -20 -20 -20 -21 -21 -21 -22 -22 -22 -23 -23 -22 -22 -23 -23 -23 -22 -23 -23 -22 -22 -23 -21 -21 -20 -19 -19 -18 -17

GFSGL_925_temp_054.txt.gz
Temp
16 16 16 15 15 15 15 15 15 15 15 15 15 15 15 15 15 15 15 15 15 15 14 13 12 11 11 10 10 10 9 9 9 8 8 7 7 7 6 6 6 6 6
17 16 15 15 15 15 15 15 14 15 15 15 15 15 15 16 16 15 15 15 15 15 14 12 11 11 11 10 10 9 9 8 8 7 6 6 6 6 5 5 5 6 7
17 16 16 15 15 15 14 14 15 14 14 14 15 15 15 15 15 14 14 14 14 14 13 11 13 11 10 10 10 8 7 6 6 6 5 5 5 4 5 5 5 6 6
18 17 16 15 15 15 15 15 14 15 14 14 15 15 15 15 14 14 14 14 14 13 13 12 11 10 10 9 8 7 6 6 5 5 4 3 3 4 3 4 5 5 5
18 17 17 16 16 15 15 15 15 14 14 15 15 15 15 15 15 15 14 14 13 12 12 11 11 10 11 9 8 6 6 5 4 3 3 3 2 2 2 4 4 4 4
18 18 18 17 16 16 16 15 15 15 15 15 15 15 15 14 14 14 13 11 11 11 10 10 10 9 8 7 7 6 6 5 3 3 3 2 2 2 3 3 4 3 4
18 18 18 17 17 16 16 16 16 15 15 15 15 15 15 15 14 12 12 11 11 10 9 8 8 7 7 6 5 5 4 3 3 2 2 2 2 2 2 2 2 2 2
19 19 18 18 17 17 16 16 16 15 15 15 15 14 14 13 13 13 12 10 10 9 8 7 7 5 4 4 3 2 1 1 1 1 0 -0 -0 -0 -0 0 -0 -0 -0
20 19 19 18 17 17 17 16 16 15 14 13 13 12 12 12 11 11 10 8 7 5 4 4 4 3 2 3 2 0 -1 -1 -2 -2 -2 -2 -2 -2 -3 -3 -1 -0 -0
20 20 19 18 18 17 16 15 11 11 11 9 8 8 8 8 7 8 8 6 3 2 1 0 1 1 -0 -0 0 -1 -3 -4 -4 -4 -4 -4 -4 -4 -5 -5 -3 -2 -2
19 18 18 17 16 13 9 10 9 8 6 5 4 3 4 3 3 5 5 4 2 -1 -2 -2 -1 -1 -1 -1 -2 -3 -4 -4 -4 -4 -3 -3 -4 -4 -4 -5 -5 -4 -4
11 10 10 9 9 8 8 6 6 4 2 -0 -1 -2 -1 -0 1 1 2 2 -1 -2 -3 -3 -4 -4 -4 -5 -5 -5 -4 -5 -4 -4 -4 -4 -4 -4 -5 -5 -6 -6 -6
6 5 5 5 4 3 3 1 1 1 -1 -2 -3 -4 -4 -3 -3 -2 -1 -1 -1 -2 -3 -4 -5 -6 -6 -7 -7 -7 -7 -6 -6 -6 -5 -5 -6 -6 -7 -7 -7 -7 -7
3 2 2 2 1 1 1 1 -0 -1 -1 -2 -3 -4 -5 -5 -5 -4 -4 -5 -5 -5 -6 -6 -6 -6 -6 -7 -8 -8 -7 -7 -7 -7 -7 -7 -8 -8 -8 -8 -9 -8 -8
1 -0 -1 -1 -2 -2 -2 -2 -1 -1 -1 -2 -4 -4 -5 -6 -6 -6 -5 -6 -6 -6 -7 -7 -6 -6 -6 -6 -7 -7 -8 -8 -8 -8 -8 -9 -9 -9 -9 -9 -10 -9 -9
-0 -1 -2 -2 -3 -3 -4 -5 -4 -3 -2 -3 -4 -4 -6 -6 -6 -6 -6 -7 -7 -7 -6 -6 -6 -6 -6 -7 -7 -8 -9 -9 -10 -10 -11 -10 -10 -10 -10 -10 -10 -10 -9
-2 -2 -3 -3 -3 -4 -4 -4 -5 -6 -6 -6 -6 -6 -6 -6 -6 -7 -8 -8 -7 -7 -6 -6 -7 -7 -8 -8 -9 -9 -9 -11 -12 -11 -11 -11 -11 -11 -11 -11 -10 -10 -9
-4 -4 -4 -4 -4 -4 -5 -5 -5 -5 -5 -6 -6 -7 -7 -7 -7 -8 -8 -7 -7 -7 -7 -7 -8 -9 -9 -9 -10 -10 -11 -12 -12 -12 -12 -12 -12 -12 -12 -11 -11 -10 -10
-4 -4 -4 -4 -4 -4 -4 -5 -5 -6 -6 -7 -8 -8 -8 -8 -9 -9 -8 -7 -7 -8 -8 -9 -9 -10 -11 -11 -12 -12 -13 -13 -13 -13 -13 -13 -13 -13 -13 -12 -12 -12 -12
-6 -6 -6 -6 -6 -5 -5 -5 -6 -6 -7 -7 -8 -8 -8 -8 -8 -9 -9 -9 -9 -10 -10 -11 -11 -12 -12 -13 -13 -13 -13 -13 -14 -14 -14 -14 -14 -14 -14 -14 -13 -13 -13
-7 -7 -7 -7 -6 -6 -6 -6 -7 -7 -8 -9 -10 -11 -10 -9 -10 -10 -11 -11 -12 -12 -13 -13 -13 -13 -14 -14 -14 -15 -15 -15 -15 -16 -16 -15 -15 -15 -15 -15 -14 -14 -14
-7 -7 -7 -7 -7 -7 -7 -8 -8 -8 -9 -9 -11 -12 -11 -11 -11 -12 -13 -13 -14 -14 -14 -15 -15 -15 -15 -16 -17 -17 -17 -17 -17 -17 -17 -17 -16 -16 -16 -16 -15 -15 -14
-8 -8 -8 -9 -9 -9 -9 -10 -10 -10 -10 -11 -11 -12 -12 -13 -13 -13 -14 -15 -15 -16 -17 -17 -17 -17 -17 -18 -18 -18 -18 -18 -18 -18 -18 -18 -17 -17 -17 -17 -16 -15 -15
-10 -10 -10 -11 -10 -10 -11 -11 -12 -13 -12 -12 -13 -13 -14 -14 -15 -16 -16 -17 -17 -17 -18 -18 -19 -19 -20 -20 -20 -20 -19 -20 -20 -20 -19 -19 -19 -19 -18 -17 -17 -16 -16
-11 -12 -12 -12 -12 -12 -13 -13 -13 -13 -14 -14 -14 -15 -15 -15 -16 -16 -17 -18 -19 -19 -19 -20 -20 -20 -20 -21 -22 -22 -21 -22 -23 -23 -22 -21 -20 -20 -19 -18 -17 -16 -16
-13 -13 -13 -14 -14 -14 -14 -14 -15 -15 -15 -16 -16 -16 -17 -17 -17 -18 -18 -19 -19 -20 -20 -20 -20 -21 -22 -21 -21 -22 -23 -23 -24 -24 -24 -22 -21 -19 -18 -18 -17 -17 -17

GFSGL_925_temp_057.txt.gz
Temp
19 17 15 15 15 15 15 16 16 16 16 17 17 16 16 16 16 16 16 16 16 16 16 16 16 16 15 14 12 11 11 10 10 11 10 9 8 8 7 6 7 7 7
20 19 17 17 16 16 16 16 16 17 17 17 17 17 17 17 16 16 16 16 16 16 16 16 16 15 14 13 12 11 11 10 10 10 8 7 7 7 5 6 6 7 7
20 20 18 18 18 17 17 17 17 17 17 17 17 17 17 16 16 16 16 16 16 16 16 16 16 14 14 13 11 10 10 10 9 8 6 6 5 5 5 5 5 6 6
20 20 19 18 18 17 17 17 17 17 16 16 16 16 16 16 16 16 17 17 17 16 15 15 15 14 13 12 11 10 10 9 8 7 5 5 4 4 5 4 4 5 5
21 21 20 19 18 18 17 17 17 17 17 16 16 16 16 16 16 16 16 16 16 15 15 15 14 14 14 12 11 9 9 8 6 5 5 3 3 3 3 4 4 5 5
21 21 21 20 18 18 18 17 17 17 16 16 16 16 16 16 16 16 16 16 15 14 14 14 14 13 12 12 11 9 9 7 5 4 4 3 3 3 3 3 4 4 5
22 21 21 20 19 19 18 18 17 17 17 17 16 16 16 16 16 16 15 15 15 14 14 13 12 11 11 10 8 7 6 5 5 4 4 3 3 3 3 3 3 3 3
23 22 21 21 20 19 19 18 18 18 17 17 17 16 16 16 16 16 15 14 14 13 12 11 10 9 8 7 6 4 3 2 3 3 2 0 1 2 2 1 2 2 2
24 23 22 21 21 20 19 19 18 18 17 17 17 16 16 15 15 14 14 12 11 10 9 8 7 6 4 5 4 1 -0 -1 -2 -2 -1 -1 -1 -1 -0 -0 -0 0 1
25 24 23 22 21 20 20 19 18 17 16 12 12 12 12 11 11 11 11 10 7 4 3 2 2 2 0 0 1 -1 -2 -4 -3 -3 -3 -2 -2 -2 -2 -2 -2 -1 -1
23 24 23 22 21 20 19 19 12 8 8 6 6 4 6 5 4 6 6 5 2 -1 -2 -2 -3 -2 -2 -1 -1 -2 -3 -4 -4 -4 -3 -2 -2 -2 -3 -3 -4 -3 -3
16 18 13 12 12 10 9 8 8 7 4 1 -0 -1 -1 -0 1 2 3 3 0 -1 -3 -3 -4 -3 -3 -3 -4 -4 -5 -5 -4 -3 -3 -3 -3 -3 -3 -3 -4 -4 -4
9 7 5 6 5 5 5 3 2 2 0 -1 -2 -3 -4 -3 -3 -1 -1 -1 -1 -3 -4 -5 -5 -5 -5 -6 -6 -6 -5 -5 -5 -5 -4 -4 -5 -5 -6 -6 -6 -6 -6
2 2 1 1 1 1 1 1 0 -0 -1 -2 -3 -4 -5 -5 -5 -4 -4 -4 -4 -5 -6 -6 -6 -6 -6 -7 -7 -7 -7 -7 -7 -7 -7 -7 -7 -7 -7 -7 -7 -8 -8
-0 -1 -2 -2 -3 -3 -3 -2 -2 -2 -2 -3 -4 -5 -5 -5 -6 -5 -5 -5 -5 -6 -6 -6 -6 -6 -6 -6 -6 -7 -7 -7 -7 -8 -8 -8 -8 -8 -8 -8 -8 -8 -8
-2 -2 -3 -3 -4 -4 -4 -5 -5 -4 -4 -4 -4 -5 -5 -5 -6 -6 -6 -6 -5 -5 -4 -4 -5 -5 -5 -6 -6 -7 -7 -8 -9 -9 -9 -9 -9 -9 -9 -9 -9 -9 -8
-3 -3 -3 -3 -4 -4 -5 -5 -5 -6 -6 -5 -5 -6 -6 -6 -7 -7 -6 -6 -6 -5 -5 -6 -6 -6 -7 -7 -8 -8 -8 -10 -10 -10 -10 -10 -10 -10 -10 -10 -9 -9 -9
-3 -4 -4 -4 -4 -4 -4 -5 -5 -5 -6 -7 -7 -7 -7 -7 -7 -7 -6 -6 -7 -7 -7 -7 -8 -8 -8 -9 -9 -10 -10 -11 -11 -11 -11 -11 -11 -11 -11 -11 -10 -10 -10
-4 -4 -4 -4 -4 -5 -5 -6 -6 -7 -7 -7 -8 -8 -8 -8 -8 -8 -8 -7 -8 -8 -8 -9 -9 -10 -10 -10 -11 -11 -11 -11 -12 -12 -12 -12 -12 -12 -12 -12 -12 -12 -12
-5 -5 -5 -5 -5 -5 -5 -6 -6 -7 -7 -7 -7 -7 -8 -8 -9 -9 -9 -9 -9 -9 -9 -10 -10 -11 -11 -11 -12 -12 -12 -12 -12 -13 -13 -14 -14 -14 -13 -13 -13 -13 -13
-6 -6 -6 -6 -5 -5 -6 -6 -7 -8 -9 -9 -9 -9 -9 -9 -9 -10 -10 -11 -11 -11 -11 -11 -11 -12 -12 -13 -13 -13 -14 -14 -14 -14 -14 -14 -15 -15 -14 -14 -14 -14 -14
-7 -7 -7 -7 -7 -7 -7 -7 -7 -8 -9 -9 -10 -10 -10 -10 -10 -11 -12 -12 -13 -13 -13 -13 -13 -14 -14 -15 -15 -15 -15 -15 -15 -16 -16 -16 -16 -15 -15 -15 -15 -15 -14
-8 -7 -8 -8 -8 -8 -8 -8 -9 -9 -9 -9 -10 -10 -11 -12 -12 -12 -13 -14 -14 -14 -15 -15 -16 -16 -16 -17 -17 -17 -17 -17 -17 -17 -18 -17 -17 -16 -16 -16 -16 -15 -15
-8 -9 -9 -9 -9 -9 -9 -10 -10 -10 -10 -11 -11 -12 -12 -13 -13 -14 -15 -15 -16 -16 -16 -17 -17 -17 -18 -19 -18 -18 -18 -19 -19 -20 -19 -19 -18 -18 -17 -17 -17 -16 -16
-10 -10 -10 -10 -10 -10 -11 -11 -11 -11 -12 -12 -12 -13 -13 -13 -14 -14 -15 -16 -17 -17 -17 -18 -18 -18 -18 -19 -20 -20 -20 -21 -22 -23 -22 -21 -20 -19 -19 -18 -17 -16 -16
-12 -12 -12 -12 -12 -12 -12 -12 -13 -13 -13 -13 -14 -14 -14 -15 -15 -16 -16 -17 -18 -19 -18 -18 -18 -19 -20 -20 -19 -21 -21 -23 -24 -24 -23 -22 -21 -20 -18 -17 -17 -17 -17